Time,TemperatureF,DewpointF,PressureIn,WindDirection,WindDirectionDegrees,WindSpeedMPH,WindSpeedGustMPH,Humidity,HourlyPrecipIn,Conditions,Clouds,dailyrainin,SoftwareType,DateUTC
2013-06-14 00:00:00,54.1,52.7,29.55,NE,41,1.0,9.0,95,0.16,,,0.93,VWS V14.01,2013-06-14 04:00:00,
2013-06-14 00:01:00,54.1,52.7,29.55,NE,41,1.0,9.0,95,0.16,,,0.93,VWS V14.01,2013-06-14 04:01:00,
2013-06-14 00:02:00,54.0,52.6,29.55,NE,41,0.0,9.0,95,0.16,,,0.00,VWS V14.01,2013-06-14 04:02:00,
2013-06-14 00:03:00,54.0,52.6,29.55,NE,41,0.0,9.0,95,0.16,,,0.00,VWS V14.01,2013-06-14 04:03:00,
2013-06-14 00:04:00,54.0,52.6,29.55,NE,41,0.0,9.0,95,0.16,,,0.00,VWS V14.01,2013-06-14 04:04:00,
2013-06-14 00:05:00,54.0,52.6,29.55,NE,41,0.0,9.0,95,0.16,,,0.00,VWS V14.01,2013-06-14 04:05:00,
2013-06-14 00:06:00,54.0,52.6,29.55,NE,41,0.0,9.0,95,0.16,,,0.00,VWS V14.01,2013-06-14 04:06:00,
2013-06-14 00:07:00,54.1,52.7,29.55,ENE,66,2.0,9.0,95,0.16,,,0.00,VWS V14.01,2013-06-14 04:07:00,
2013-06-14 00:08:00,54.0,52.6,29.55,ENE,65,0.0,9.0,95,0.16,,,0.00,VWS V14.01,2013-06-14 04:08:00,
2013-06-14 00:09:00,54.0,52.6,29.55,ENE,67,2.0,9.0,95,0.16,,,0.00,VWS V14.01,2013-06-14 04:09:00,
2013-06-14 00:10:00,54.0,52.6,29.55,ENE,67,0.0,9.0,95,0.16,,,0.00,VWS V14.01,2013-06-14 04:10:00,
2013-06-14 00:11:00,54.0,52.6,29.55,ENE,67,0.0,9.0,95,0.16,,,0.00,VWS V14.01,2013-06-14 04:11:00,
2013-06-14 00:12:00,54.0,52.6,29.55,ENE,67,0.0,9.0,95,0.16,,,0.00,VWS V14.01,2013-06-14 04:12:00,
2013-06-14 00:13:00,54.0,52.6,29.55,ENE,66,0.0,9.0,95,0.17,,,0.01,VWS V14.01,2013-06-14 04:13:00,
2013-06-14 00:14:00,54.0,52.6,29.55,ENE,66,1.0,9.0,95,0.17,,,0.01,VWS V14.01,2013-06-14 04:14:00,
2013-06-14 00:15:00,54.0,52.6,29.56,ENE,66,0.0,9.0,95,0.17,,,0.01,VWS V14.01,2013-06-14 04:15:00,
2013-06-14 00:16:00,54.0,52.6,29.56,ENE,66,0.0,9.0,95,0.17,,,0.01,VWS V14.01,2013-06-14 04:16:00,
2013-06-14 00:17:00,53.9,52.5,29.56,ENE,66,0.0,9.0,95,0.17,,,0.01,VWS V14.01,2013-06-14 04:17:00,
2013-06-14 00:18:00,53.9,52.5,29.56,ENE,61,2.0,9.0,95,0.17,,,0.01,VWS V14.01,2013-06-14 04:18:00,
2013-06-14 00:19:00,53.9,52.5,29.56,ENE,61,0.0,9.0,95,0.17,,,0.01,VWS V14.01,2013-06-14 04:19:00,
2013-06-14 00:20:00,53.9,52.5,29.56,ENE,61,2.0,9.0,95,0.17,,,0.01,VWS V14.01,2013-06-14 04:20:00,
2013-06-14 00:21:00,53.9,52.5,29.56,ENE,61,2.0,9.0,95,0.17,,,0.01,VWS V14.01,2013-06-14 04:21:00,
2013-06-14 00:22:00,53.9,52.5,29.56,ENE,61,2.0,9.0,95,0.17,,,0.01,VWS V14.01,2013-06-14 04:22:00,
2013-06-14 00:23:00,53.8,52.4,29.56,NE,37,3.0,9.0,95,0.17,,,0.01,VWS V14.01,2013-06-14 04:23:00,
2013-06-14 00:24:00,53.7,52.3,29.56,NNE,26,1.0,9.0,95,0.17,,,0.01,VWS V14.01,2013-06-14 04:24:00,
2013-06-14 00:25:00,53.7,52.3,29.56,NNE,26,2.0,9.0,95,0.17,,,0.01,VWS V14.01,2013-06-14 04:25:00,
2013-06-14 00:26:00,53.7,52.3,29.56,NNE,26,2.0,9.0,95,0.17,,,0.01,VWS V14.01,2013-06-14 04:26:00,
2013-06-14 00:27:00,53.7,52.3,29.56,NNE,28,3.0,9.0,95,0.17,,,0.01,VWS V14.01,2013-06-14 04:27:00,
2013-06-14 00:28:00,53.7,52.3,29.56,NNE,28,0.0,9.0,95,0.17,,,0.01,VWS V14.01,2013-06-14 04:28:00,
2013-06-14 00:29:00,53.6,52.2,29.56,NNE,29,0.0,9.0,95,0.17,,,0.01,VWS V14.01,2013-06-14 04:29:00,
2013-06-14 00:30:00,53.6,52.2,29.56,NNE,29,0.0,9.0,95,0.17,,,0.01,VWS V14.01,2013-06-14 04:30:00,
2013-06-14 00:31:00,53.6,52.2,29.56,NNE,29,0.0,9.0,95,0.17,,,0.01,VWS V14.01,2013-06-14 04:31:00,
2013-06-14 00:32:00,53.6,52.2,29.56,NNE,29,0.0,9.0,95,0.17,,,0.01,VWS V14.01,2013-06-14 04:32:00,
2013-06-14 00:33:00,53.5,52.1,29.56,NNE,30,0.0,9.0,95,0.17,,,0.01,VWS V14.01,2013-06-14 04:33:00,
2013-06-14 00:34:00,53.5,52.1,29.56,NNE,30,2.0,9.0,95,0.17,,,0.01,VWS V14.01,2013-06-14 04:34:00,
2013-06-14 00:35:00,53.5,52.1,29.56,NNE,30,0.0,9.0,95,0.17,,,0.01,VWS V14.01,2013-06-14 04:35:00,
2013-06-14 00:36:00,53.5,52.1,29.56,NNE,30,0.0,9.0,95,0.17,,,0.01,VWS V14.01,2013-06-14 04:36:00,
2013-06-14 00:37:00,53.5,52.1,29.56,NE,37,0.0,9.0,95,0.18,,,0.02,VWS V14.01,2013-06-14 04:37:00,
2013-06-14 00:38:00,53.5,52.1,29.56,NE,37,0.0,9.0,95,0.18,,,0.02,VWS V14.01,2013-06-14 04:38:00,
2013-06-14 00:39:00,53.5,52.1,29.56,NE,39,2.0,9.0,95,0.18,,,0.02,VWS V14.01,2013-06-14 04:39:00,
2013-06-14 00:40:00,53.4,52.0,29.56,NE,39,0.0,9.0,95,0.18,,,0.02,VWS V14.01,2013-06-14 04:40:00,
2013-06-14 00:41:00,53.4,52.0,29.56,NE,39,0.0,9.0,95,0.18,,,0.02,VWS V14.01,2013-06-14 04:41:00,
2013-06-14 00:42:00,53.4,52.0,29.56,NE,39,0.0,9.0,95,0.18,,,0.02,VWS V14.01,2013-06-14 04:42:00,
2013-06-14 00:43:00,53.4,52.0,29.56,NE,38,1.0,9.0,95,0.18,,,0.02,VWS V14.01,2013-06-14 04:43:00,
2013-06-14 00:44:00,53.4,52.0,29.56,NE,38,1.0,9.0,95,0.18,,,0.02,VWS V14.01,2013-06-14 04:44:00,
2013-06-14 00:45:00,53.4,52.0,29.57,NE,42,3.0,9.0,95,0.18,,,0.02,VWS V14.01,2013-06-14 04:45:00,
2013-06-14 00:46:00,53.4,52.0,29.57,NE,42,3.0,9.0,95,0.18,,,0.02,VWS V14.01,2013-06-14 04:46:00,
2013-06-14 00:47:00,53.4,52.0,29.57,NE,42,3.0,9.0,95,0.18,,,0.02,VWS V14.01,2013-06-14 04:47:00,
2013-06-14 00:48:00,53.4,52.0,29.57,NE,42,3.0,9.0,95,0.18,,,0.02,VWS V14.01,2013-06-14 04:48:00,
2013-06-14 00:49:00,53.3,51.9,29.57,NE,40,3.0,9.0,95,0.19,,,0.03,VWS V14.01,2013-06-14 04:49:00,
2013-06-14 00:50:00,53.2,51.8,29.57,NE,40,1.0,9.0,95,0.19,,,0.03,VWS V14.01,2013-06-14 04:50:00,
2013-06-14 00:51:00,53.2,51.8,29.57,NE,40,1.0,9.0,95,0.19,,,0.03,VWS V14.01,2013-06-14 04:51:00,
2013-06-14 00:52:00,53.2,51.8,29.57,NE,40,1.0,9.0,95,0.19,,,0.03,VWS V14.01,2013-06-14 04:52:00,
2013-06-14 00:53:00,53.2,51.8,29.57,NE,39,0.0,9.0,95,0.19,,,0.03,VWS V14.01,2013-06-14 04:53:00,
2013-06-14 00:54:00,53.2,51.8,29.57,NE,39,0.0,9.0,95,0.19,,,0.03,VWS V14.01,2013-06-14 04:54:00,
2013-06-14 00:55:00,53.2,51.8,29.57,NE,39,0.0,9.0,95,0.19,,,0.03,VWS V14.01,2013-06-14 04:55:00,
2013-06-14 00:56:00,53.2,51.8,29.57,NE,39,0.0,9.0,95,0.19,,,0.03,VWS V14.01,2013-06-14 04:56:00,
2013-06-14 00:57:00,53.2,51.8,29.57,NE,39,1.0,9.0,95,0.19,,,0.03,VWS V14.01,2013-06-14 04:57:00,
2013-06-14 00:58:00,53.2,51.8,29.57,NNE,26,0.0,9.0,95,0.19,,,0.03,VWS V14.01,2013-06-14 04:58:00,
2013-06-14 00:59:00,53.2,51.8,29.57,NNE,26,0.0,9.0,95,0.19,,,0.03,VWS V14.01,2013-06-14 04:59:00,
2013-06-14 01:00:00,53.2,51.8,29.57,NNE,26,0.0,9.0,95,0.19,,,0.03,VWS V14.01,2013-06-14 05:00:00,
2013-06-14 01:01:00,53.2,51.8,29.57,NNE,26,0.0,9.0,95,0.19,,,0.03,VWS V14.01,2013-06-14 05:01:00,
2013-06-14 01:02:00,53.2,51.8,29.57,NNE,26,0.0,9.0,95,0.19,,,0.03,VWS V14.01,2013-06-14 05:02:00,
2013-06-14 01:03:00,53.1,51.7,29.57,NE,49,1.0,9.0,95,0.20,,,0.04,VWS V14.01,2013-06-14 05:03:00,
2013-06-14 01:04:00,53.1,51.7,29.57,NE,49,2.0,9.0,95,0.20,,,0.04,VWS V14.01,2013-06-14 05:04:00,
2013-06-14 01:05:00,53.1,51.7,29.57,NE,49,1.0,9.0,95,0.20,,,0.04,VWS V14.01,2013-06-14 05:05:00,
2013-06-14 01:06:00,53.1,51.7,29.57,NE,49,1.0,9.0,95,0.20,,,0.04,VWS V14.01,2013-06-14 05:06:00,
2013-06-14 01:07:00,53.1,51.7,29.57,NE,49,0.0,9.0,95,0.20,,,0.04,VWS V14.01,2013-06-14 05:07:00,
2013-06-14 01:08:00,53.1,51.7,29.57,NE,50,3.0,9.0,95,0.20,,,0.04,VWS V14.01,2013-06-14 05:08:00,
2013-06-14 01:09:00,53.0,51.6,29.57,NE,49,0.0,9.0,95,0.20,,,0.04,VWS V14.01,2013-06-14 05:09:00,
2013-06-14 01:10:00,53.0,51.6,29.57,NE,49,0.0,9.0,95,0.20,,,0.04,VWS V14.01,2013-06-14 05:10:00,
2013-06-14 01:11:00,53.0,51.6,29.57,NE,49,0.0,9.0,95,0.20,,,0.04,VWS V14.01,2013-06-14 05:11:00,
2013-06-14 01:12:00,53.0,51.6,29.57,NE,48,0.0,9.0,95,0.21,,,0.05,VWS V14.01,2013-06-14 05:12:00,
2013-06-14 01:13:00,53.0,51.6,29.57,NE,48,0.0,9.0,95,0.21,,,0.05,VWS V14.01,2013-06-14 05:13:00,
2013-06-14 01:14:00,53.0,51.6,29.57,NE,48,0.0,9.0,95,0.21,,,0.05,VWS V14.01,2013-06-14 05:14:00,
2013-06-14 01:15:00,53.0,51.6,29.58,NE,48,1.0,9.0,95,0.21,,,0.05,VWS V14.01,2013-06-14 05:15:00,
2013-06-14 01:16:00,53.0,51.6,29.58,NE,48,1.0,9.0,95,0.21,,,0.05,VWS V14.01,2013-06-14 05:16:00,
2013-06-14 01:17:00,53.0,51.6,29.58,NE,49,0.0,9.0,95,0.21,,,0.05,VWS V14.01,2013-06-14 05:17:00,
2013-06-14 01:18:00,52.9,51.5,29.58,NE,49,2.0,9.0,95,0.21,,,0.05,VWS V14.01,2013-06-14 05:18:00,
2013-06-14 01:19:00,52.9,51.5,29.58,NE,48,0.0,9.0,95,0.21,,,0.05,VWS V14.01,2013-06-14 05:19:00,
2013-06-14 01:20:00,52.9,51.5,29.58,NE,48,0.0,9.0,95,0.21,,,0.05,VWS V14.01,2013-06-14 05:20:00,
2013-06-14 01:21:00,52.9,51.5,29.58,NE,48,0.0,9.0,95,0.21,,,0.05,VWS V14.01,2013-06-14 05:21:00,
2013-06-14 01:22:00,52.9,51.5,29.58,NE,48,0.0,9.0,95,0.21,,,0.05,VWS V14.01,2013-06-14 05:22:00,
2013-06-14 01:23:00,52.9,51.5,29.58,NNE,32,0.0,9.0,95,0.21,,,0.05,VWS V14.01,2013-06-14 05:23:00,
2013-06-14 01:24:00,52.9,51.5,29.58,NNE,32,0.0,9.0,95,0.22,,,0.06,VWS V14.01,2013-06-14 05:24:00,
2013-06-14 01:25:00,52.9,51.5,29.58,NNE,32,0.0,9.0,95,0.22,,,0.06,VWS V14.01,2013-06-14 05:25:00,
2013-06-14 01:26:00,52.9,51.5,29.58,NNE,32,0.0,9.0,95,0.22,,,0.06,VWS V14.01,2013-06-14 05:26:00,
2013-06-14 01:27:00,52.8,51.4,29.58,NNE,32,0.0,9.0,95,0.22,,,0.06,VWS V14.01,2013-06-14 05:27:00,
2013-06-14 01:28:00,52.8,51.4,29.58,NNE,32,0.0,9.0,95,0.22,,,0.06,VWS V14.01,2013-06-14 05:28:00,
2013-06-14 01:29:00,52.8,51.4,29.58,NE,36,1.0,9.0,95,0.22,,,0.06,VWS V14.01,2013-06-14 05:29:00,
2013-06-14 01:30:00,52.8,51.4,29.58,NE,36,0.0,9.0,95,0.22,,,0.06,VWS V14.01,2013-06-14 05:30:00,
2013-06-14 01:31:00,52.8,51.4,29.58,NE,36,0.0,9.0,95,0.22,,,0.06,VWS V14.01,2013-06-14 05:31:00,
2013-06-14 01:32:00,52.8,51.4,29.58,NE,36,0.0,9.0,95,0.22,,,0.06,VWS V14.01,2013-06-14 05:32:00,
2013-06-14 01:33:00,52.8,51.4,29.58,NNE,32,0.0,9.0,95,0.22,,,0.06,VWS V14.01,2013-06-14 05:33:00,
2013-06-14 01:34:00,52.8,51.4,29.58,NNE,32,0.0,9.0,95,0.22,,,0.06,VWS V14.01,2013-06-14 05:34:00,
2013-06-14 01:35:00,52.8,51.4,29.58,NNE,32,0.0,9.0,95,0.22,,,0.06,VWS V14.01,2013-06-14 05:35:00,
2013-06-14 01:36:00,52.8,51.4,29.58,NNE,32,0.0,9.0,95,0.22,,,0.06,VWS V14.01,2013-06-14 05:36:00,
2013-06-14 01:37:00,52.8,51.4,29.58,ENE,74,2.0,9.0,95,0.22,,,0.06,VWS V14.01,2013-06-14 05:37:00,
2013-06-14 01:38:00,52.8,51.4,29.58,ENE,66,2.0,9.0,95,0.22,,,0.06,VWS V14.01,2013-06-14 05:38:00,
2013-06-14 01:39:00,52.8,51.4,29.58,NE,40,2.0,9.0,95,0.22,,,0.06,VWS V14.01,2013-06-14 05:39:00,
2013-06-14 01:40:00,52.8,51.4,29.58,NE,40,0.0,9.0,95,0.22,,,0.06,VWS V14.01,2013-06-14 05:40:00,
2013-06-14 01:41:00,52.8,51.4,29.58,NE,40,0.0,9.0,95,0.22,,,0.06,VWS V14.01,2013-06-14 05:41:00,
2013-06-14 01:42:00,52.8,51.4,29.58,NE,40,0.0,9.0,95,0.22,,,0.06,VWS V14.01,2013-06-14 05:42:00,
2013-06-14 01:43:00,52.8,51.4,29.58,NNE,19,0.0,9.0,95,0.23,,,0.07,VWS V14.01,2013-06-14 05:43:00,
2013-06-14 01:44:00,52.7,51.3,29.58,NNE,19,0.0,9.0,95,0.23,,,0.07,VWS V14.01,2013-06-14 05:44:00,
2013-06-14 01:45:00,52.7,51.3,29.59,NNE,19,0.0,9.0,95,0.23,,,0.07,VWS V14.01,2013-06-14 05:45:00,
2013-06-14 01:46:00,52.7,51.3,29.59,NNE,19,0.0,9.0,95,0.23,,,0.07,VWS V14.01,2013-06-14 05:46:00,
2013-06-14 01:47:00,52.7,51.3,29.59,NNE,19,0.0,9.0,95,0.23,,,0.07,VWS V14.01,2013-06-14 05:47:00,
2013-06-14 01:48:00,52.7,51.3,29.59,NNE,19,0.0,9.0,95,0.23,,,0.07,VWS V14.01,2013-06-14 05:48:00,
2013-06-14 01:49:00,52.7,51.3,29.59,NE,46,3.0,9.0,95,0.23,,,0.07,VWS V14.01,2013-06-14 05:49:00,
2013-06-14 01:50:00,52.7,51.3,29.59,NE,46,0.0,9.0,95,0.23,,,0.07,VWS V14.01,2013-06-14 05:50:00,
2013-06-14 01:51:00,52.7,51.3,29.59,NE,46,0.0,9.0,95,0.23,,,0.07,VWS V14.01,2013-06-14 05:51:00,
2013-06-14 01:52:00,52.6,51.2,29.59,NNE,20,0.0,9.0,95,0.23,,,0.07,VWS V14.01,2013-06-14 05:52:00,
2013-06-14 01:53:00,52.7,51.3,29.59,NNE,21,2.0,9.0,95,0.23,,,0.07,VWS V14.01,2013-06-14 05:53:00,
2013-06-14 01:54:00,52.6,51.2,29.59,NNE,21,0.0,9.0,95,0.23,,,0.07,VWS V14.01,2013-06-14 05:54:00,
2013-06-14 01:55:00,52.6,51.2,29.59,NNE,21,0.0,9.0,95,0.23,,,0.07,VWS V14.01,2013-06-14 05:55:00,
2013-06-14 01:56:00,52.6,51.2,29.59,NNE,21,0.0,9.0,95,0.23,,,0.07,VWS V14.01,2013-06-14 05:56:00,
2013-06-14 01:57:00,52.6,51.2,29.59,NNE,21,0.0,9.0,95,0.23,,,0.07,VWS V14.01,2013-06-14 05:57:00,
2013-06-14 01:58:00,52.7,51.3,29.59,NNE,24,1.0,9.0,95,0.23,,,0.07,VWS V14.01,2013-06-14 05:58:00,
2013-06-14 01:59:00,52.7,51.3,29.59,NNE,24,0.0,9.0,95,0.23,,,0.07,VWS V14.01,2013-06-14 05:59:00,
2013-06-14 02:00:00,52.7,51.3,29.59,NNE,24,0.0,9.0,95,0.23,,,0.07,VWS V14.01,2013-06-14 06:00:00,
2013-06-14 02:01:00,52.7,51.3,29.59,NNE,24,0.0,9.0,95,0.23,,,0.07,VWS V14.01,2013-06-14 06:01:00,
2013-06-14 02:02:00,52.7,51.3,29.59,NNE,23,0.0,9.0,95,0.23,,,0.07,VWS V14.01,2013-06-14 06:02:00,
2013-06-14 02:03:00,52.7,51.3,29.59,NNE,24,3.0,9.0,95,0.23,,,0.07,VWS V14.01,2013-06-14 06:03:00,
2013-06-14 02:04:00,52.6,51.2,29.59,NNE,24,0.0,9.0,95,0.23,,,0.07,VWS V14.01,2013-06-14 06:04:00,
2013-06-14 02:05:00,52.6,51.2,29.59,NNE,24,0.0,9.0,95,0.23,,,0.07,VWS V14.01,2013-06-14 06:05:00,
2013-06-14 02:06:00,52.6,51.2,29.59,NNE,24,0.0,9.0,95,0.23,,,0.07,VWS V14.01,2013-06-14 06:06:00,
2013-06-14 02:07:00,52.6,51.2,29.59,NE,39,0.0,9.0,95,0.24,,,0.08,VWS V14.01,2013-06-14 06:07:00,
2013-06-14 02:08:00,52.6,51.2,29.59,NE,39,0.0,9.0,95,0.24,,,0.08,VWS V14.01,2013-06-14 06:08:00,
2013-06-14 02:09:00,52.6,51.2,29.59,NE,53,0.0,9.0,95,0.24,,,0.08,VWS V14.01,2013-06-14 06:09:00,
2013-06-14 02:10:00,52.6,51.2,29.59,NE,53,2.0,9.0,95,0.24,,,0.08,VWS V14.01,2013-06-14 06:10:00,
2013-06-14 02:11:00,52.6,51.2,29.59,NE,53,2.0,9.0,95,0.24,,,0.08,VWS V14.01,2013-06-14 06:11:00,
2013-06-14 02:12:00,52.6,51.2,29.59,NNE,22,0.0,9.0,95,0.24,,,0.08,VWS V14.01,2013-06-14 06:12:00,
2013-06-14 02:13:00,52.6,51.2,29.59,NNE,22,0.0,9.0,95,0.24,,,0.08,VWS V14.01,2013-06-14 06:13:00,
2013-06-14 02:14:00,52.6,51.2,29.59,NNE,22,1.0,9.0,95,0.24,,,0.08,VWS V14.01,2013-06-14 06:14:00,
2013-06-14 02:15:00,52.6,51.2,29.60,NNE,22,0.0,9.0,95,0.24,,,0.08,VWS V14.01,2013-06-14 06:15:00,
2013-06-14 02:16:00,52.6,51.2,29.60,NNE,22,0.0,9.0,95,0.24,,,0.08,VWS V14.01,2013-06-14 06:16:00,
2013-06-14 02:17:00,52.6,51.2,29.60,NNE,22,0.0,9.0,95,0.24,,,0.08,VWS V14.01,2013-06-14 06:17:00,
2013-06-14 02:18:00,52.6,51.2,29.60,NE,44,0.0,9.0,95,0.24,,,0.08,VWS V14.01,2013-06-14 06:18:00,
2013-06-14 02:19:00,52.7,51.3,29.60,NE,37,3.0,9.0,95,0.24,,,0.08,VWS V14.01,2013-06-14 06:19:00,
2013-06-14 02:20:00,52.7,51.3,29.60,NE,36,3.0,9.0,95,0.24,,,0.08,VWS V14.01,2013-06-14 06:20:00,
2013-06-14 02:21:00,52.7,51.3,29.60,NE,36,3.0,9.0,95,0.24,,,0.08,VWS V14.01,2013-06-14 06:21:00,
2013-06-14 02:22:00,52.7,51.3,29.60,NE,34,2.0,9.0,95,0.24,,,0.08,VWS V14.01,2013-06-14 06:22:00,
2013-06-14 02:23:00,52.6,51.2,29.60,NE,34,0.0,9.0,95,0.24,,,0.08,VWS V14.01,2013-06-14 06:23:00,
2013-06-14 02:24:00,52.7,51.3,29.60,NE,34,0.0,9.0,95,0.24,,,0.08,VWS V14.01,2013-06-14 06:24:00,
2013-06-14 02:25:00,52.7,51.3,29.60,NE,34,0.0,9.0,95,0.25,,,0.09,VWS V14.01,2013-06-14 06:25:00,
2013-06-14 02:26:00,52.7,51.3,29.60,NE,34,0.0,9.0,95,0.25,,,0.09,VWS V14.01,2013-06-14 06:26:00,
2013-06-14 02:27:00,52.7,51.3,29.60,NE,34,0.0,9.0,95,0.25,,,0.09,VWS V14.01,2013-06-14 06:27:00,
2013-06-14 02:28:00,52.6,51.2,29.60,North,5,1.0,9.0,95,0.25,,,0.09,VWS V14.01,2013-06-14 06:28:00,
2013-06-14 02:29:00,52.6,51.2,29.60,NE,34,0.0,9.0,95,0.25,,,0.09,VWS V14.01,2013-06-14 06:29:00,
2013-06-14 02:30:00,52.6,51.2,29.60,NE,34,0.0,9.0,95,0.25,,,0.09,VWS V14.01,2013-06-14 06:30:00,
2013-06-14 02:31:00,52.6,51.2,29.60,NE,34,0.0,9.0,95,0.25,,,0.09,VWS V14.01,2013-06-14 06:31:00,
2013-06-14 02:32:00,52.6,51.2,29.60,NE,34,0.0,9.0,95,0.25,,,0.09,VWS V14.01,2013-06-14 06:32:00,
2013-06-14 02:33:00,52.6,51.2,29.60,North,5,2.0,9.0,95,0.25,,,0.09,VWS V14.01,2013-06-14 06:33:00,
2013-06-14 02:34:00,52.6,51.2,29.60,ENE,69,2.0,9.0,95,0.25,,,0.09,VWS V14.01,2013-06-14 06:34:00,
2013-06-14 02:35:00,52.6,51.2,29.60,North,360,3.0,9.0,95,0.25,,,0.09,VWS V14.01,2013-06-14 06:35:00,
2013-06-14 02:36:00,52.6,51.2,29.60,North,360,3.0,9.0,95,0.25,,,0.09,VWS V14.01,2013-06-14 06:36:00,
2013-06-14 02:37:00,52.5,51.1,29.60,NE,41,0.0,9.0,95,0.26,,,0.10,VWS V14.01,2013-06-14 06:37:00,
2013-06-14 02:38:00,52.5,51.1,29.60,NNE,13,3.0,9.0,95,0.26,,,0.10,VWS V14.01,2013-06-14 06:38:00,
2013-06-14 02:39:00,52.5,51.1,29.60,NNW,348,0.0,9.0,95,0.26,,,0.10,VWS V14.01,2013-06-14 06:39:00,
2013-06-14 02:40:00,52.5,51.1,29.60,East,94,3.0,9.0,95,0.26,,,0.10,VWS V14.01,2013-06-14 06:40:00,
2013-06-14 02:41:00,52.5,51.1,29.60,East,94,3.0,9.0,95,0.26,,,0.10,VWS V14.01,2013-06-14 06:41:00,
2013-06-14 02:42:00,52.5,51.1,29.60,NNE,22,2.0,9.0,95,0.26,,,0.10,VWS V14.01,2013-06-14 06:42:00,
2013-06-14 02:43:00,52.4,51.0,29.60,NE,46,3.0,9.0,95,0.27,,,0.11,VWS V14.01,2013-06-14 06:43:00,
2013-06-14 02:44:00,52.4,51.0,29.60,NE,51,0.0,9.0,95,0.27,,,0.11,VWS V14.01,2013-06-14 06:44:00,
2013-06-14 02:45:00,52.4,51.0,29.62,NE,51,0.0,9.0,95,0.27,,,0.11,VWS V14.01,2013-06-14 06:45:00,
2013-06-14 02:46:00,52.4,51.0,29.62,NE,51,0.0,9.0,95,0.27,,,0.11,VWS V14.01,2013-06-14 06:46:00,
2013-06-14 02:47:00,52.4,51.0,29.62,NE,51,0.0,9.0,95,0.27,,,0.11,VWS V14.01,2013-06-14 06:47:00,
2013-06-14 02:48:00,52.4,51.0,29.62,NE,51,0.0,9.0,95,0.27,,,0.11,VWS V14.01,2013-06-14 06:48:00,
2013-06-14 02:49:00,52.4,51.0,29.62,NE,51,0.0,9.0,95,0.27,,,0.11,VWS V14.01,2013-06-14 06:49:00,
2013-06-14 02:50:00,52.2,50.8,29.62,NE,45,2.0,8.0,95,0.05,,,0.12,VWS V14.01,2013-06-14 06:50:00,
2013-06-14 03:00:00,52.0,50.6,29.61,NE,45,2.0,8.0,95,0.05,,,0.13,VWS V14.01,2013-06-14 07:00:00,
2013-06-14 03:10:00,51.9,50.5,29.61,NE,45,1.0,4.0,95,0.05,,,0.13,VWS V14.01,2013-06-14 07:10:00,
2013-06-14 03:20:00,51.7,50.3,29.63,NE,45,1.0,7.0,95,0.04,,,0.13,VWS V14.01,2013-06-14 07:20:00,
2013-06-14 03:30:00,51.6,50.2,29.63,NNE,22,1.0,5.0,95,0.04,,,0.13,VWS V14.01,2013-06-14 07:30:00,
2013-06-14 03:40:00,51.4,50.0,29.63,NE,45,2.0,7.0,95,0.04,,,0.14,VWS V14.01,2013-06-14 07:40:00,
2013-06-14 03:50:00,51.4,50.0,29.64,NNE,22,1.0,6.0,95,0.03,,,0.14,VWS V14.01,2013-06-14 07:50:00,
2013-06-14 04:00:00,51.3,49.9,29.64,NE,45,1.0,7.0,95,0.02,,,0.14,VWS V14.01,2013-06-14 08:00:00,
2013-06-14 04:10:00,51.4,50.0,29.64,NNE,22,1.0,5.0,95,0.01,,,0.14,VWS V14.01,2013-06-14 08:10:00,
2013-06-14 04:20:00,51.4,50.0,29.65,NE,45,1.0,4.0,95,0.01,,,0.14,VWS V14.01,2013-06-14 08:20:00,
2013-06-14 04:30:00,51.4,50.0,29.65,NE,45,2.0,8.0,95,0.01,,,0.14,VWS V14.01,2013-06-14 08:30:00,
2013-06-14 04:40:00,51.4,50.0,29.65,NE,45,1.0,7.0,95,0.01,,,0.14,VWS V14.01,2013-06-14 08:40:00,
2013-06-14 04:50:00,51.4,50.0,29.65,NE,45,1.0,6.0,95,0.00,,,0.14,VWS V14.01,2013-06-14 08:50:00,
2013-06-14 05:00:00,51.3,49.9,29.65,NE,45,2.0,8.0,95,0.00,,,0.14,VWS V14.01,2013-06-14 09:00:00,
2013-06-14 05:10:00,51.3,49.9,29.65,NE,45,1.0,5.0,95,0.00,,,0.14,VWS V14.01,2013-06-14 09:10:00,
2013-06-14 05:20:00,51.2,49.8,29.66,NNE,22,1.0,6.0,95,0.00,,,0.14,VWS V14.01,2013-06-14 09:20:00,
2013-06-14 05:30:00,51.1,49.4,29.67,NNE,22,1.0,4.0,94,0.00,,,0.14,VWS V14.01,2013-06-14 09:30:00,
2013-06-14 05:40:00,51.1,49.4,29.67,NE,45,1.0,5.0,94,0.00,,,0.14,VWS V14.01,2013-06-14 09:40:00,
2013-06-14 05:50:00,51.2,49.5,29.68,NNE,22,1.0,4.0,94,0.00,,,0.14,VWS V14.01,2013-06-14 09:50:00,
2013-06-14 06:00:00,51.2,49.5,29.69,NNE,22,0.0,3.0,94,0.00,,,0.14,VWS V14.01,2013-06-14 10:00:00,
2013-06-14 06:10:00,51.2,49.5,29.69,NE,45,0.0,4.0,94,0.00,,,0.14,VWS V14.01,2013-06-14 10:10:00,
2013-06-14 06:20:00,51.3,49.6,29.70,NNE,22,0.0,3.0,94,0.00,,,0.14,VWS V14.01,2013-06-14 10:20:00,
2013-06-14 06:30:00,51.4,49.7,29.70,NNE,22,1.0,5.0,94,0.00,,,0.14,VWS V14.01,2013-06-14 10:30:00,
2013-06-14 06:40:00,51.5,49.8,29.70,NNE,22,1.0,5.0,94,0.00,,,0.14,VWS V14.01,2013-06-14 10:40:00,
2013-06-14 06:50:00,51.7,50.0,29.70,NNE,22,0.0,3.0,94,0.00,,,0.14,VWS V14.01,2013-06-14 10:50:00,
2013-06-14 07:00:00,52.0,50.0,29.70,NE,45,1.0,4.0,93,0.00,,,0.14,VWS V14.01,2013-06-14 11:00:00,
2013-06-14 07:10:00,52.3,50.3,29.70,NE,45,1.0,4.0,93,0.00,,,0.14,VWS V14.01,2013-06-14 11:10:00,
2013-06-14 07:20:00,52.6,50.6,29.71,NNE,22,1.0,5.0,93,0.00,,,0.14,VWS V14.01,2013-06-14 11:20:00,
2013-06-14 07:30:00,52.6,50.3,29.71,NE,45,1.0,4.0,92,0.00,,,0.14,VWS V14.01,2013-06-14 11:30:00,
2013-06-14 07:40:00,52.8,50.5,29.71,NE,45,0.0,3.0,92,0.00,,,0.14,VWS V14.01,2013-06-14 11:40:00,
2013-06-14 07:50:00,52.8,50.2,29.72,NE,45,0.0,3.0,91,0.00,,,0.14,VWS V14.01,2013-06-14 11:50:00,
2013-06-14 08:00:00,52.8,50.2,29.73,NE,45,0.0,4.0,91,0.00,,,0.14,VWS V14.01,2013-06-14 12:00:00,
2013-06-14 08:10:00,53.0,50.5,29.73,North,0,0.0,3.0,91,0.00,,,0.14,VWS V14.01,2013-06-14 12:10:00,
2013-06-14 08:20:00,53.2,50.7,29.74,WNW,292,0.0,3.0,91,0.00,,,0.14,VWS V14.01,2013-06-14 12:20:00,
2013-06-14 08:30:00,53.4,50.8,29.75,WNW,292,0.0,4.0,91,0.00,,,0.14,VWS V14.01,2013-06-14 12:30:00,
2013-06-14 08:40:00,53.5,50.9,29.75,WNW,292,0.0,2.0,91,0.00,,,0.14,VWS V14.01,2013-06-14 12:40:00,
2013-06-14 08:50:00,53.7,51.1,29.75,WNW,292,0.0,3.0,91,0.00,,,0.14,VWS V14.01,2013-06-14 12:50:00,
2013-06-14 09:00:00,53.7,51.1,29.76,SE,135,0.0,2.0,91,0.00,,,0.14,VWS V14.01,2013-06-14 13:00:00,
2013-06-14 09:10:00,53.8,51.2,29.76,NW,315,0.0,2.0,91,0.00,,,0.14,VWS V14.01,2013-06-14 13:10:00,
2013-06-14 09:20:00,54.1,51.8,29.76,NW,315,0.0,2.0,92,0.00,,,0.14,VWS V14.01,2013-06-14 13:20:00,
2013-06-14 09:30:00,54.5,52.2,29.78,NW,315,0.0,2.0,92,0.00,,,0.14,VWS V14.01,2013-06-14 13:30:00,
2013-06-14 09:40:00,54.7,52.4,29.78,NW,315,0.0,2.0,92,0.00,,,0.14,VWS V14.01,2013-06-14 13:40:00,
2013-06-14 09:50:00,55.1,52.8,29.78,NNE,22,0.0,3.0,92,0.00,,,0.14,VWS V14.01,2013-06-14 13:50:00,
2013-06-14 10:00:00,55.3,52.7,29.78,NNW,338,0.0,5.0,91,0.00,,,0.14,VWS V14.01,2013-06-14 14:00:00,
2013-06-14 10:10:00,55.6,53.0,29.78,NW,315,0.0,3.0,91,0.00,,,0.14,VWS V14.01,2013-06-14 14:10:00,
2013-06-14 10:20:00,55.8,52.9,29.79,NW,315,0.0,4.0,90,0.00,,,0.14,VWS V14.01,2013-06-14 14:20:00,
2013-06-14 10:30:00,57.0,54.1,29.80,NE,45,0.0,2.0,90,0.00,,,0.14,VWS V14.01,2013-06-14 14:30:00,
2013-06-14 10:40:00,58.4,53.6,29.80,NE,45,1.0,5.0,84,0.00,,,0.14,VWS V14.01,2013-06-14 14:40:00,
2013-06-14 10:50:00,60.0,53.8,29.80,NE,45,0.0,3.0,80,0.00,,,0.14,VWS V14.01,2013-06-14 14:50:00,
2013-06-14 11:00:00,61.3,54.0,29.80,NW,315,0.0,5.0,77,0.00,,,0.14,VWS V14.01,2013-06-14 15:00:00,
2013-06-14 11:10:00,61.9,54.3,29.80,WSW,248,1.0,10.0,76,0.00,,,0.14,VWS V14.01,2013-06-14 15:10:00,
2013-06-14 11:20:00,62.4,54.0,29.80,NW,315,2.0,7.0,74,0.00,,,0.14,VWS V14.01,2013-06-14 15:20:00,
2013-06-14 11:30:00,63.5,54.7,29.79,West,270,1.0,7.0,73,0.00,,,0.14,VWS V14.01,2013-06-14 15:30:00,
2013-06-14 11:40:00,64.4,55.6,29.79,West,270,1.0,4.0,73,0.00,,,0.14,VWS V14.01,2013-06-14 15:40:00,
2013-06-14 11:50:00,65.0,56.2,29.79,NW,315,1.0,7.0,73,0.00,,,0.14,VWS V14.01,2013-06-14 15:50:00,
2013-06-14 12:00:00,65.7,57.2,29.79,SW,225,1.0,6.0,74,0.00,,,0.14,VWS V14.01,2013-06-14 16:00:00,
2013-06-14 12:10:00,66.6,57.7,29.79,SSW,202,1.0,5.0,73,0.00,,,0.14,VWS V14.01,2013-06-14 16:10:00,
2013-06-14 12:20:00,66.9,57.6,29.79,WNW,292,1.0,9.0,72,0.00,,,0.14,VWS V14.01,2013-06-14 16:20:00,
2013-06-14 12:30:00,67.6,57.9,29.78,WSW,248,1.0,7.0,71,0.00,,,0.14,VWS V14.01,2013-06-14 16:30:00,
2013-06-14 12:40:00,67.8,58.8,29.78,NW,315,2.0,7.0,73,0.00,,,0.14,VWS V14.01,2013-06-14 16:40:00,
2013-06-14 12:50:00,68.3,58.2,29.78,ENE,68,2.0,10.0,70,0.00,,,0.14,VWS V14.01,2013-06-14 16:50:00,
2013-06-14 13:00:00,69.0,58.4,29.78,WNW,292,2.0,8.0,69,0.00,,,0.14,VWS V14.01,2013-06-14 17:00:00,
2013-06-14 13:10:00,69.1,58.1,29.78,West,270,1.0,6.0,68,0.00,,,0.14,VWS V14.01,2013-06-14 17:10:00,
2013-06-14 13:20:00,69.2,58.2,29.78,ENE,68,1.0,5.0,68,0.00,,,0.13,VWS V14.01,2013-06-14 17:20:00,
2013-06-14 13:22:00,69.2,58.2,29.78,NE,38,0.0,1.0,68,0.00,,,0.13,VWS V14.01,2013-06-14 17:22:00,
2013-06-14 13:23:00,69.2,58.2,29.78,NE,38,0.0,1.0,68,0.00,,,0.13,VWS V14.01,2013-06-14 17:23:00,
2013-06-14 13:24:00,69.3,58.3,29.78,NE,36,1.0,1.0,68,0.00,,,0.13,VWS V14.01,2013-06-14 17:24:00,
2013-06-14 13:25:00,69.3,57.9,29.78,SSE,168,5.0,5.0,67,0.00,,,0.13,VWS V14.01,2013-06-14 17:25:00,
2013-06-14 13:26:00,69.3,57.9,29.78,SSE,168,5.0,5.0,67,0.00,,,0.13,VWS V14.01,2013-06-14 17:26:00,
2013-06-14 13:27:00,69.3,57.9,29.78,SSE,168,5.0,5.0,67,0.00,,,0.13,VWS V14.01,2013-06-14 17:27:00,
2013-06-14 13:28:00,69.3,57.9,29.78,SSE,168,5.0,5.0,67,0.00,,,0.13,VWS V14.01,2013-06-14 17:28:00,
2013-06-14 13:29:00,69.3,57.9,29.78,SSE,168,5.0,5.0,67,0.00,,,0.13,VWS V14.01,2013-06-14 17:29:00,
2013-06-14 13:30:00,69.3,57.9,29.78,SSE,168,5.0,5.0,67,0.00,,,0.13,VWS V14.01,2013-06-14 17:30:00,
2013-06-14 13:31:00,69.3,57.9,29.78,SSE,168,5.0,5.0,67,0.00,,,0.13,VWS V14.01,2013-06-14 17:31:00,
2013-06-14 13:32:00,69.3,57.9,29.78,SSE,168,5.0,5.0,67,0.00,,,0.13,VWS V14.01,2013-06-14 17:32:00,
2013-06-14 13:33:00,69.3,57.9,29.78,SSE,168,5.0,5.0,67,0.00,,,0.13,VWS V14.01,2013-06-14 17:33:00,
2013-06-14 13:34:00,69.3,57.9,29.78,SSE,168,5.0,5.0,67,0.00,,,0.13,VWS V14.01,2013-06-14 17:34:00,
2013-06-14 13:35:00,69.3,57.9,29.78,SSE,168,5.0,5.0,67,0.00,,,0.13,VWS V14.01,2013-06-14 17:35:00,
2013-06-14 13:36:00,69.3,57.9,29.78,SSE,168,5.0,5.0,67,0.00,,,0.13,VWS V14.01,2013-06-14 17:36:00,
2013-06-14 13:37:00,69.3,57.9,29.78,SSE,168,5.0,5.0,67,0.00,,,0.13,VWS V14.01,2013-06-14 17:37:00,
2013-06-14 13:38:00,69.3,57.9,29.78,SSE,168,5.0,5.0,67,0.00,,,0.13,VWS V14.01,2013-06-14 17:38:00,
2013-06-14 13:39:00,69.3,57.9,29.78,SSE,168,5.0,5.0,67,0.00,,,0.13,VWS V14.01,2013-06-14 17:39:00,
2013-06-14 13:40:00,69.9,57.6,29.77,SE,135,1.0,7.0,65,0.00,,,0.13,VWS V14.01,2013-06-14 17:40:00,
2013-06-14 13:50:00,70.0,56.0,29.77,WNW,292,2.0,11.0,61,0.00,,,0.13,VWS V14.01,2013-06-14 17:50:00,
2013-06-14 14:00:00,70.3,56.2,29.77,ENE,68,1.0,9.0,61,0.00,,,0.13,VWS V14.01,2013-06-14 18:00:00,
2013-06-14 14:10:00,70.5,56.9,29.77,NNW,338,1.0,7.0,62,0.00,,,0.13,VWS V14.01,2013-06-14 18:10:00,
2013-06-14 14:20:00,70.5,56.4,29.77,NNW,338,1.0,6.0,61,0.00,,,0.13,VWS V14.01,2013-06-14 18:20:00,
2013-06-14 14:30:00,71.0,56.0,29.77,ESE,112,1.0,7.0,59,0.00,,,0.13,VWS V14.01,2013-06-14 18:30:00,
2013-06-14 14:40:00,71.0,56.9,29.77,NW,315,2.0,9.0,61,0.00,,,0.13,VWS V14.01,2013-06-14 18:40:00,
2013-06-14 14:51:00,71.0,56.9,29.77,NW,315,2.0,9.0,61,0.00,,,0.13,VWS V14.01,2013-06-14 18:51:00,
2013-06-14 14:52:00,69.2,58.6,29.79,WNW,302,0.0,2.0,69,0.00,,,0.13,VWS V14.01,2013-06-14 18:52:00,
2013-06-14 14:53:00,69.1,58.5,29.79,WNW,302,0.0,2.0,69,0.00,,,0.13,VWS V14.01,2013-06-14 18:53:00,
2013-06-14 14:54:00,69.0,58.8,29.79,WNW,302,0.0,2.0,70,0.00,,,0.13,VWS V14.01,2013-06-14 18:54:00,
2013-06-14 14:55:00,69.0,59.2,29.79,WNW,302,0.0,2.0,71,0.00,,,0.13,VWS V14.01,2013-06-14 18:55:00,
2013-06-14 14:56:00,68.9,59.5,29.79,WNW,302,0.0,2.0,72,0.00,,,0.13,VWS V14.01,2013-06-14 18:56:00,
2013-06-14 14:57:00,68.9,59.5,29.79,WNW,302,0.0,2.0,72,0.00,,,0.13,VWS V14.01,2013-06-14 18:57:00,
2013-06-14 14:58:00,68.7,60.1,29.79,WNW,302,0.0,2.0,74,0.00,,,0.13,VWS V14.01,2013-06-14 18:58:00,
2013-06-14 14:59:00,68.5,59.9,29.79,WNW,302,0.0,2.0,74,0.00,,,0.13,VWS V14.01,2013-06-14 18:59:00,
2013-06-14 15:00:00,68.5,59.5,29.78,WNW,302,0.0,2.0,73,0.00,,,0.13,VWS V14.01,2013-06-14 19:00:00,
2013-06-14 15:01:00,68.1,58.7,29.78,WNW,302,0.0,0.0,72,0.00,,,0.13,VWS V14.01,2013-06-14 19:01:00,
2013-06-14 15:02:00,68.0,58.7,29.78,WNW,302,0.0,0.0,72,0.00,,,0.13,VWS V14.01,2013-06-14 19:02:00,
2013-06-14 15:03:00,67.8,58.5,29.78,WNW,302,0.0,0.0,72,0.00,,,0.13,VWS V14.01,2013-06-14 19:03:00,
2013-06-14 15:04:00,67.7,58.4,29.78,WNW,302,0.0,0.0,72,0.00,,,0.13,VWS V14.01,2013-06-14 19:04:00,
2013-06-14 15:05:00,67.7,58.4,29.78,WNW,302,0.0,0.0,72,0.00,,,0.13,VWS V14.01,2013-06-14 19:05:00,
2013-06-14 15:06:00,67.6,58.7,29.78,WNW,302,0.0,0.0,73,0.00,,,0.13,VWS V14.01,2013-06-14 19:06:00,
2013-06-14 15:07:00,67.6,58.7,29.78,WNW,302,0.0,0.0,73,0.00,,,0.13,VWS V14.01,2013-06-14 19:07:00,
2013-06-14 15:08:00,67.5,58.9,29.78,WNW,302,0.0,0.0,74,0.00,,,0.13,VWS V14.01,2013-06-14 19:08:00,
2013-06-14 15:09:00,67.5,58.9,29.78,WNW,302,0.0,0.0,74,0.00,,,0.13,VWS V14.01,2013-06-14 19:09:00,
2013-06-14 15:10:00,67.5,58.9,29.78,WNW,302,0.0,0.0,74,0.00,,,0.13,VWS V14.01,2013-06-14 19:10:00,
2013-06-14 15:11:00,67.5,59.3,29.78,WNW,302,0.0,0.0,75,0.00,,,0.13,VWS V14.01,2013-06-14 19:11:00,
2013-06-14 15:12:00,67.6,59.4,29.78,WNW,302,0.0,0.0,75,0.00,,,0.13,VWS V14.01,2013-06-14 19:12:00,
2013-06-14 15:13:00,67.6,59.4,29.78,WNW,302,0.0,1.0,75,0.00,,,0.13,VWS V14.01,2013-06-14 19:13:00,
2013-06-14 15:14:00,67.5,58.9,29.78,WNW,302,0.0,1.0,74,0.00,,,0.13,VWS V14.01,2013-06-14 19:14:00,
2013-06-14 15:15:00,67.5,59.3,29.78,WNW,302,0.0,1.0,75,0.00,,,0.13,VWS V14.01,2013-06-14 19:15:00,
2013-06-14 15:16:00,67.6,59.8,29.78,WNW,302,0.0,1.0,76,0.00,,,0.13,VWS V14.01,2013-06-14 19:16:00,
2013-06-14 15:17:00,67.7,60.2,29.78,WNW,302,0.0,1.0,77,0.00,,,0.13,VWS V14.01,2013-06-14 19:17:00,
2013-06-14 15:18:00,67.7,60.2,29.78,WNW,302,0.0,1.0,77,0.00,,,0.13,VWS V14.01,2013-06-14 19:18:00,
2013-06-14 15:19:00,67.9,60.8,29.78,WNW,302,0.0,1.0,78,0.00,,,0.13,VWS V14.01,2013-06-14 19:19:00,
2013-06-14 15:20:00,67.9,60.4,29.78,WNW,302,0.0,1.0,77,0.00,,,0.13,VWS V14.01,2013-06-14 19:20:00,
2013-06-14 15:21:00,67.9,60.4,29.78,WNW,302,0.0,0.0,77,0.00,,,0.13,VWS V14.01,2013-06-14 19:21:00,
2013-06-14 15:22:00,68.0,60.5,29.78,WNW,289,2.0,2.0,77,0.00,,,0.13,VWS V14.01,2013-06-14 19:22:00,
2013-06-14 15:23:00,68.0,60.5,29.78,WNW,289,1.0,2.0,77,0.00,,,0.13,VWS V14.01,2013-06-14 19:23:00,
2013-06-14 15:24:00,68.0,60.5,29.78,WNW,289,0.0,2.0,77,0.00,,,0.13,VWS V14.01,2013-06-14 19:24:00,
2013-06-14 15:25:00,68.1,60.3,29.78,WNW,298,2.0,3.0,76,0.00,,,0.13,VWS V14.01,2013-06-14 19:25:00,
2013-06-14 15:26:00,68.1,60.3,29.78,WNW,298,0.0,3.0,76,0.00,,,0.13,VWS V14.01,2013-06-14 19:26:00,
2013-06-14 15:27:00,68.1,59.9,29.78,WNW,298,0.0,3.0,75,0.00,,,0.13,VWS V14.01,2013-06-14 19:27:00,
2013-06-14 15:28:00,68.1,59.9,29.78,WNW,298,0.0,3.0,75,0.00,,,0.13,VWS V14.01,2013-06-14 19:28:00,
2013-06-14 15:29:00,68.1,59.5,29.78,WNW,299,2.0,3.0,74,0.00,,,0.13,VWS V14.01,2013-06-14 19:29:00,
2013-06-14 15:30:00,68.1,59.9,29.78,WNW,298,0.0,3.0,75,0.00,,,0.13,VWS V14.01,2013-06-14 19:30:00,
2013-06-14 15:31:00,68.1,59.9,29.78,WNW,298,0.0,0.0,75,0.00,,,0.13,VWS V14.01,2013-06-14 19:31:00,
2013-06-14 15:32:00,68.2,60.0,29.78,WNW,298,0.0,0.0,75,0.00,,,0.13,VWS V14.01,2013-06-14 19:32:00,
2013-06-14 15:33:00,68.2,60.0,29.78,WNW,298,0.0,0.0,75,0.00,,,0.13,VWS V14.01,2013-06-14 19:33:00,
2013-06-14 15:34:00,68.3,60.8,29.78,WNW,298,1.0,1.0,77,0.00,,,0.13,VWS V14.01,2013-06-14 19:34:00,
2013-06-14 15:35:00,68.4,60.9,29.78,NW,319,1.0,2.0,77,0.00,,,0.13,VWS V14.01,2013-06-14 19:35:00,
2013-06-14 15:36:00,68.4,60.9,29.78,NW,319,1.0,2.0,77,0.00,,,0.13,VWS V14.01,2013-06-14 19:36:00,
2013-06-14 15:37:00,68.5,61.0,29.78,NW,319,0.0,2.0,77,0.00,,,0.13,VWS V14.01,2013-06-14 19:37:00,
2013-06-14 15:38:00,68.6,60.7,29.78,NW,319,0.0,2.0,76,0.00,,,0.13,VWS V14.01,2013-06-14 19:38:00,
2013-06-14 15:39:00,68.6,60.7,29.78,NW,319,0.0,2.0,76,0.00,,,0.13,VWS V14.01,2013-06-14 19:39:00,
2013-06-14 15:40:00,68.7,61.2,29.78,NW,319,1.0,2.0,77,0.00,,,0.13,VWS V14.01,2013-06-14 19:40:00,
2013-06-14 15:41:00,68.7,61.2,29.78,NW,319,1.0,2.0,77,0.00,,,0.13,VWS V14.01,2013-06-14 19:41:00,
2013-06-14 15:42:00,69.0,61.1,29.78,West,263,3.0,3.0,76,0.00,,,0.13,VWS V14.01,2013-06-14 19:42:00,
2013-06-14 15:43:00,69.1,61.2,29.78,NNW,333,0.0,3.0,76,0.00,,,0.13,VWS V14.01,2013-06-14 19:43:00,
2013-06-14 15:44:00,69.2,61.0,29.78,West,265,0.0,3.0,75,0.00,,,0.13,VWS V14.01,2013-06-14 19:44:00,
2013-06-14 15:45:00,69.3,61.0,29.77,West,265,1.0,3.0,75,0.00,,,0.13,VWS V14.01,2013-06-14 19:45:00,
2013-06-14 15:46:00,69.3,61.0,29.77,West,265,1.0,3.0,75,0.00,,,0.13,VWS V14.01,2013-06-14 19:46:00,
2013-06-14 15:47:00,69.7,61.4,29.77,West,265,2.0,3.0,75,0.00,,,0.13,VWS V14.01,2013-06-14 19:47:00,
2013-06-14 15:48:00,69.8,61.2,29.77,West,265,1.0,3.0,74,0.00,,,0.13,VWS V14.01,2013-06-14 19:48:00,
2013-06-14 15:49:00,69.9,60.9,29.77,West,266,1.0,3.0,73,0.00,,,0.13,VWS V14.01,2013-06-14 19:49:00,
2013-06-14 15:50:00,69.9,60.9,29.77,NW,325,1.0,3.0,73,0.00,,,0.13,VWS V14.01,2013-06-14 19:50:00,
2013-06-14 15:51:00,69.9,60.9,29.77,NW,325,1.0,3.0,73,0.00,,,0.13,VWS V14.01,2013-06-14 19:51:00,
2013-06-14 15:52:00,69.9,60.9,29.77,NW,325,1.0,3.0,73,0.00,,,0.13,VWS V14.01,2013-06-14 19:52:00,
2013-06-14 15:53:00,70.1,59.9,29.77,North,355,0.0,3.0,70,0.00,,,0.13,VWS V14.01,2013-06-14 19:53:00,
2013-06-14 15:54:00,70.1,59.9,29.77,North,350,0.0,3.0,70,0.00,,,0.13,VWS V14.01,2013-06-14 19:54:00,
2013-06-14 15:55:00,70.1,59.9,29.77,NNW,333,0.0,3.0,70,0.00,,,0.13,VWS V14.01,2013-06-14 19:55:00,
2013-06-14 15:56:00,70.1,59.9,29.77,NNW,333,0.0,3.0,70,0.00,,,0.13,VWS V14.01,2013-06-14 19:56:00,
2013-06-14 15:57:00,70.1,59.9,29.77,NNW,333,0.0,3.0,70,0.00,,,0.13,VWS V14.01,2013-06-14 19:57:00,
2013-06-14 15:58:00,70.1,59.9,29.77,NNW,334,0.0,3.0,70,0.00,,,0.13,VWS V14.01,2013-06-14 19:58:00,
2013-06-14 15:59:00,70.1,59.9,29.77,NNW,333,0.0,3.0,70,0.00,,,0.13,VWS V14.01,2013-06-14 19:59:00,
2013-06-14 16:00:00,70.1,59.9,29.78,NNW,333,0.0,3.0,70,0.00,,,0.13,VWS V14.01,2013-06-14 20:00:00,
2013-06-14 16:01:00,70.1,59.9,29.78,NNW,333,0.0,3.0,70,0.00,,,0.13,VWS V14.01,2013-06-14 20:01:00,
2013-06-14 16:02:00,70.1,59.9,29.78,NNW,333,0.0,3.0,70,0.00,,,0.13,VWS V14.01,2013-06-14 20:02:00,
2013-06-14 16:03:00,70.0,60.2,29.78,NNW,333,0.0,3.0,71,0.00,,,0.13,VWS V14.01,2013-06-14 20:03:00,
2013-06-14 16:04:00,70.0,60.6,29.78,NNW,333,0.0,3.0,72,0.00,,,0.13,VWS V14.01,2013-06-14 20:04:00,
2013-06-14 16:05:00,70.0,60.6,29.78,NNW,333,0.0,3.0,72,0.00,,,0.13,VWS V14.01,2013-06-14 20:05:00,
2013-06-14 16:06:00,70.0,60.6,29.78,NNW,333,0.0,3.0,72,0.00,,,0.13,VWS V14.01,2013-06-14 20:06:00,
2013-06-14 16:07:00,70.0,60.6,29.78,NNW,333,0.0,3.0,72,0.00,,,0.13,VWS V14.01,2013-06-14 20:07:00,
2013-06-14 16:08:00,69.9,60.1,29.78,NE,51,0.0,3.0,71,0.00,,,0.13,VWS V14.01,2013-06-14 20:08:00,
2013-06-14 16:09:00,69.8,59.6,29.78,NE,51,0.0,3.0,70,0.00,,,0.13,VWS V14.01,2013-06-14 20:09:00,
2013-06-14 16:10:00,69.8,59.6,29.78,NE,51,0.0,3.0,70,0.00,,,0.13,VWS V14.01,2013-06-14 20:10:00,
2013-06-14 16:11:00,69.8,59.6,29.78,NE,51,0.0,3.0,70,0.00,,,0.13,VWS V14.01,2013-06-14 20:11:00,
2013-06-14 16:12:00,69.6,60.2,29.78,NE,42,2.0,3.0,72,0.00,,,0.13,VWS V14.01,2013-06-14 20:12:00,
2013-06-14 16:13:00,69.4,60.4,29.78,ENE,78,5.0,7.0,73,0.00,,,0.13,VWS V14.01,2013-06-14 20:13:00,
2013-06-14 16:14:00,69.1,59.3,29.78,NE,48,6.0,7.0,71,0.00,,,0.13,VWS V14.01,2013-06-14 20:14:00,
2013-06-14 16:15:00,68.8,58.6,29.81,ENE,60,11.0,11.0,70,0.00,,,0.13,VWS V14.01,2013-06-14 20:15:00,
2013-06-14 16:16:00,68.8,58.6,29.81,ENE,60,11.0,11.0,70,0.00,,,0.13,VWS V14.01,2013-06-14 20:16:00,
2013-06-14 16:17:00,67.2,58.6,29.81,NNE,12,2.0,11.0,74,0.02,,,0.15,VWS V14.01,2013-06-14 20:17:00,
2013-06-14 16:18:00,66.5,58.3,29.81,NE,54,2.0,11.0,75,0.03,,,0.16,VWS V14.01,2013-06-14 20:18:00,
2013-06-14 16:19:00,66.3,58.5,29.81,NE,54,0.0,11.0,76,0.03,,,0.16,VWS V14.01,2013-06-14 20:19:00,
2013-06-14 16:20:00,66.1,58.7,29.81,NE,46,2.0,11.0,77,0.03,,,0.16,VWS V14.01,2013-06-14 20:20:00,
2013-06-14 16:21:00,66.1,58.7,29.81,NE,46,2.0,11.0,77,0.03,,,0.16,VWS V14.01,2013-06-14 20:21:00,
2013-06-14 16:22:00,66.1,58.7,29.81,NE,46,2.0,11.0,77,0.03,,,0.16,VWS V14.01,2013-06-14 20:22:00,
2013-06-14 16:23:00,65.1,58.4,29.81,NE,35,0.0,11.0,79,0.04,,,0.17,VWS V14.01,2013-06-14 20:23:00,
2013-06-14 16:24:00,64.8,58.1,29.81,NE,35,0.0,11.0,79,0.04,,,0.17,VWS V14.01,2013-06-14 20:24:00,
2013-06-14 16:25:00,64.7,58.0,29.81,NE,35,0.0,11.0,79,0.04,,,0.17,VWS V14.01,2013-06-14 20:25:00,
2013-06-14 16:26:00,64.7,58.0,29.81,NE,35,0.0,11.0,79,0.04,,,0.17,VWS V14.01,2013-06-14 20:26:00,
2013-06-14 16:27:00,64.7,58.0,29.81,NE,35,0.0,11.0,79,0.04,,,0.17,VWS V14.01,2013-06-14 20:27:00,
2013-06-14 16:28:00,63.6,58.0,29.81,NE,54,0.0,11.0,82,0.07,,,0.20,VWS V14.01,2013-06-14 20:28:00,
2013-06-14 16:29:00,63.5,57.9,29.81,NE,53,1.0,11.0,82,0.07,,,0.20,VWS V14.01,2013-06-14 20:29:00,
2013-06-14 16:30:00,63.3,57.7,29.81,NE,53,1.0,11.0,82,0.08,,,0.21,VWS V14.01,2013-06-14 20:30:00,
2013-06-14 16:31:00,63.3,57.7,29.81,NE,53,1.0,11.0,82,0.08,,,0.21,VWS V14.01,2013-06-14 20:31:00,
2013-06-14 16:32:00,63.3,57.7,29.81,NE,53,1.0,11.0,82,0.08,,,0.21,VWS V14.01,2013-06-14 20:32:00,
2013-06-14 16:33:00,62.4,57.2,29.81,NNE,22,0.0,11.0,83,0.08,,,0.21,VWS V14.01,2013-06-14 20:33:00,
2013-06-14 16:34:00,62.1,57.2,29.81,ENE,59,5.0,11.0,84,0.08,,,0.21,VWS V14.01,2013-06-14 20:34:00,
2013-06-14 16:35:00,62.0,57.1,29.81,East,85,0.0,11.0,84,0.09,,,0.22,VWS V14.01,2013-06-14 20:35:00,
2013-06-14 16:36:00,62.0,57.1,29.81,East,85,0.0,11.0,84,0.09,,,0.22,VWS V14.01,2013-06-14 20:36:00,
2013-06-14 16:37:00,62.0,57.1,29.81,East,85,0.0,11.0,84,0.09,,,0.22,VWS V14.01,2013-06-14 20:37:00,
2013-06-14 16:38:00,62.0,57.1,29.81,East,85,0.0,11.0,84,0.09,,,0.22,VWS V14.01,2013-06-14 20:38:00,
2013-06-14 16:39:00,62.0,57.1,29.81,East,85,0.0,11.0,84,0.09,,,0.22,VWS V14.01,2013-06-14 20:39:00,
2013-06-14 16:40:00,62.0,57.1,29.81,East,85,0.0,11.0,84,0.09,,,0.22,VWS V14.01,2013-06-14 20:40:00,
2013-06-14 16:41:00,61.3,57.1,29.81,NW,308,0.0,0.0,86,0.00,,,0.22,VWS V14.01,2013-06-14 20:41:00,
2013-06-14 16:42:00,61.3,57.1,29.81,NW,308,0.0,0.0,86,0.01,,,0.23,VWS V14.01,2013-06-14 20:42:00,
2013-06-14 16:43:00,61.3,57.4,29.81,NW,308,0.0,0.0,87,0.01,,,0.23,VWS V14.01,2013-06-14 20:43:00,
2013-06-14 16:44:00,61.2,57.3,29.81,NW,309,2.0,2.0,87,0.01,,,0.23,VWS V14.01,2013-06-14 20:44:00,
2013-06-14 16:45:00,61.2,57.3,29.81,NW,309,0.0,2.0,87,0.01,,,0.23,VWS V14.01,2013-06-14 20:45:00,
2013-06-14 16:46:00,61.2,57.3,29.81,NW,309,0.0,2.0,87,0.01,,,0.23,VWS V14.01,2013-06-14 20:46:00,
2013-06-14 16:47:00,61.2,57.3,29.81,NW,309,0.0,2.0,87,0.01,,,0.23,VWS V14.01,2013-06-14 20:47:00,
2013-06-14 16:48:00,61.2,57.3,29.81,NW,309,0.0,2.0,87,0.01,,,0.23,VWS V14.01,2013-06-14 20:48:00,
2013-06-14 16:49:00,61.1,57.2,29.81,NW,309,0.0,2.0,87,0.01,,,0.23,VWS V14.01,2013-06-14 20:49:00,
2013-06-14 16:50:00,61.0,57.1,29.81,NW,309,0.0,2.0,87,0.01,,,0.23,VWS V14.01,2013-06-14 20:50:00,
2013-06-14 16:51:00,61.0,57.4,29.81,NW,309,0.0,0.0,88,0.01,,,0.23,VWS V14.01,2013-06-14 20:51:00,
2013-06-14 16:52:00,61.0,57.4,29.81,NW,309,0.0,0.0,88,0.01,,,0.23,VWS V14.01,2013-06-14 20:52:00,
2013-06-14 16:53:00,61.0,57.4,29.81,NW,309,0.0,0.0,88,0.01,,,0.23,VWS V14.01,2013-06-14 20:53:00,
2013-06-14 16:54:00,61.0,57.4,29.81,NW,309,0.0,0.0,88,0.01,,,0.23,VWS V14.01,2013-06-14 20:54:00,
2013-06-14 16:55:00,60.9,57.3,29.81,NW,309,0.0,0.0,88,0.01,,,0.23,VWS V14.01,2013-06-14 20:55:00,
2013-06-14 16:56:00,60.9,57.3,29.81,NW,309,0.0,0.0,88,0.01,,,0.23,VWS V14.01,2013-06-14 20:56:00,
2013-06-14 16:57:00,60.9,57.6,29.81,NW,309,0.0,0.0,89,0.02,,,0.24,VWS V14.01,2013-06-14 20:57:00,
2013-06-14 16:58:00,60.9,57.6,29.81,NW,309,0.0,0.0,89,0.02,,,0.24,VWS V14.01,2013-06-14 20:58:00,
2013-06-14 16:59:00,60.9,57.6,29.81,NW,309,0.0,0.0,89,0.02,,,0.24,VWS V14.01,2013-06-14 20:59:00,
2013-06-14 17:00:00,60.9,57.6,29.81,NW,309,0.0,0.0,89,0.02,,,0.24,VWS V14.01,2013-06-14 21:00:00,
2013-06-14 17:01:00,60.9,57.6,29.81,NW,309,0.0,0.0,89,0.02,,,0.24,VWS V14.01,2013-06-14 21:01:00,
2013-06-14 17:02:00,60.9,57.6,29.81,NW,309,0.0,0.0,89,0.02,,,0.24,VWS V14.01,2013-06-14 21:02:00,
2013-06-14 17:03:00,60.9,57.6,29.81,NW,309,0.0,0.0,89,0.02,,,0.24,VWS V14.01,2013-06-14 21:03:00,
2013-06-14 17:04:00,60.9,57.6,29.81,NW,309,0.0,0.0,89,0.02,,,0.24,VWS V14.01,2013-06-14 21:04:00,
2013-06-14 17:05:00,60.9,57.6,29.81,NW,309,0.0,0.0,89,0.02,,,0.24,VWS V14.01,2013-06-14 21:05:00,
2013-06-14 17:06:00,60.9,57.6,29.81,NW,309,0.0,0.0,89,0.02,,,0.24,VWS V14.01,2013-06-14 21:06:00,
2013-06-14 17:07:00,60.9,57.6,29.81,NW,309,0.0,0.0,89,0.02,,,0.24,VWS V14.01,2013-06-14 21:07:00,
2013-06-14 17:08:00,60.9,58.0,29.81,NW,309,0.0,0.0,90,0.02,,,0.24,VWS V14.01,2013-06-14 21:08:00,
2013-06-14 17:09:00,60.9,58.0,29.81,NW,310,1.0,2.0,90,0.02,,,0.24,VWS V14.01,2013-06-14 21:09:00,
2013-06-14 17:10:00,60.9,58.0,29.81,NW,310,0.0,2.0,90,0.02,,,0.24,VWS V14.01,2013-06-14 21:10:00,
2013-06-14 17:11:00,60.9,58.0,29.81,NW,310,0.0,2.0,90,0.02,,,0.24,VWS V14.01,2013-06-14 21:11:00,
2013-06-14 17:12:00,60.9,58.0,29.81,NW,310,0.0,2.0,90,0.02,,,0.24,VWS V14.01,2013-06-14 21:12:00,
2013-06-14 17:13:00,60.9,58.0,29.81,NW,310,0.0,2.0,90,0.02,,,0.24,VWS V14.01,2013-06-14 21:13:00,
2013-06-14 17:14:00,60.9,58.0,29.81,NW,310,0.0,2.0,90,0.02,,,0.24,VWS V14.01,2013-06-14 21:14:00,
2013-06-14 17:15:00,60.8,58.2,29.84,NE,55,3.0,3.0,91,0.04,,,0.26,VWS V14.01,2013-06-14 21:15:00,
2013-06-14 17:16:00,60.8,58.2,29.84,NE,55,3.0,3.0,91,0.04,,,0.26,VWS V14.01,2013-06-14 21:16:00,
2013-06-14 17:17:00,60.8,58.2,29.84,NE,55,3.0,3.0,91,0.04,,,0.26,VWS V14.01,2013-06-14 21:17:00,
2013-06-14 17:18:00,60.8,58.2,29.84,NE,55,3.0,3.0,91,0.04,,,0.26,VWS V14.01,2013-06-14 21:18:00,
2013-06-14 17:19:00,60.8,58.2,29.84,NE,55,3.0,3.0,91,0.04,,,0.26,VWS V14.01,2013-06-14 21:19:00,
2013-06-14 17:20:00,60.8,58.2,29.84,NE,55,3.0,3.0,91,0.04,,,0.26,VWS V14.01,2013-06-14 21:20:00,
2013-06-14 17:21:00,59.9,57.3,29.84,NE,38,1.0,1.0,91,0.09,,,0.31,VWS V14.01,2013-06-14 21:21:00,
2013-06-14 17:22:00,59.9,57.3,29.84,NE,38,0.0,1.0,91,0.09,,,0.31,VWS V14.01,2013-06-14 21:22:00,
2013-06-14 17:23:00,59.9,57.3,29.84,NE,38,0.0,1.0,91,0.10,,,0.32,VWS V14.01,2013-06-14 21:23:00,
2013-06-14 17:24:00,59.8,57.2,29.84,NE,38,0.0,1.0,91,0.10,,,0.32,VWS V14.01,2013-06-14 21:24:00,
2013-06-14 17:25:00,59.8,57.2,29.84,NE,38,0.0,1.0,91,0.10,,,0.32,VWS V14.01,2013-06-14 21:25:00,
2013-06-14 17:26:00,59.8,57.2,29.84,NE,38,0.0,1.0,91,0.10,,,0.32,VWS V14.01,2013-06-14 21:26:00,
2013-06-14 17:27:00,59.8,57.2,29.84,NE,38,0.0,1.0,91,0.10,,,0.32,VWS V14.01,2013-06-14 21:27:00,
2013-06-14 17:28:00,59.8,57.2,29.84,NE,38,0.0,1.0,91,0.10,,,0.32,VWS V14.01,2013-06-14 21:28:00,
2013-06-14 17:29:00,59.8,57.2,29.84,NE,38,0.0,1.0,91,0.11,,,0.33,VWS V14.01,2013-06-14 21:29:00,
2013-06-14 17:30:00,59.8,57.2,29.84,NE,38,0.0,1.0,91,0.11,,,0.33,VWS V14.01,2013-06-14 21:30:00,
2013-06-14 17:31:00,59.8,57.2,29.84,NE,38,0.0,1.0,91,0.11,,,0.33,VWS V14.01,2013-06-14 21:31:00,
2013-06-14 17:32:00,59.8,57.2,29.84,NE,38,0.0,1.0,91,0.11,,,0.33,VWS V14.01,2013-06-14 21:32:00,
2013-06-14 17:33:00,59.8,57.2,29.84,NE,38,0.0,1.0,91,0.11,,,0.33,VWS V14.01,2013-06-14 21:33:00,
2013-06-14 17:34:00,59.8,57.2,29.84,NE,38,0.0,1.0,91,0.11,,,0.33,VWS V14.01,2013-06-14 21:34:00,
2013-06-14 17:35:00,59.8,57.2,29.84,NE,38,0.0,1.0,91,0.11,,,0.33,VWS V14.01,2013-06-14 21:35:00,
2013-06-14 17:36:00,59.7,57.1,29.84,NE,38,0.0,1.0,91,0.12,,,0.34,VWS V14.01,2013-06-14 21:36:00,
2013-06-14 17:37:00,59.7,57.1,29.84,NE,38,0.0,1.0,91,0.12,,,0.34,VWS V14.01,2013-06-14 21:37:00,
2013-06-14 17:38:00,59.7,57.1,29.84,NE,38,0.0,1.0,91,0.12,,,0.34,VWS V14.01,2013-06-14 21:38:00,
2013-06-14 17:39:00,59.7,57.1,29.84,NE,38,0.0,1.0,91,0.12,,,0.34,VWS V14.01,2013-06-14 21:39:00,
2013-06-14 17:40:00,59.7,57.1,29.84,NE,38,0.0,1.0,91,0.12,,,0.34,VWS V14.01,2013-06-14 21:40:00,
2013-06-14 17:41:00,59.7,57.1,29.84,NE,38,0.0,1.0,91,0.12,,,0.34,VWS V14.01,2013-06-14 21:41:00,
2013-06-14 17:42:00,59.7,57.1,29.84,NE,38,0.0,1.0,91,0.12,,,0.34,VWS V14.01,2013-06-14 21:42:00,
2013-06-14 17:43:00,59.7,57.1,29.84,NE,38,0.0,1.0,91,0.12,,,0.34,VWS V14.01,2013-06-14 21:43:00,
2013-06-14 17:44:00,59.7,57.1,29.84,NE,38,0.0,1.0,91,0.12,,,0.34,VWS V14.01,2013-06-14 21:44:00,
2013-06-14 17:45:00,59.8,57.5,29.83,NE,38,0.0,0.0,92,0.12,,,0.34,VWS V14.01,2013-06-14 21:45:00,
2013-06-14 17:46:00,59.8,57.5,29.83,NE,38,0.0,0.0,92,0.12,,,0.34,VWS V14.01,2013-06-14 21:46:00,
2013-06-14 17:47:00,59.8,57.5,29.83,NE,38,0.0,0.0,92,0.12,,,0.34,VWS V14.01,2013-06-14 21:47:00,
2013-06-14 17:48:00,59.8,57.5,29.83,NE,38,0.0,0.0,92,0.12,,,0.34,VWS V14.01,2013-06-14 21:48:00,
2013-06-14 17:49:00,59.8,57.5,29.83,NE,38,0.0,0.0,92,0.12,,,0.34,VWS V14.01,2013-06-14 21:49:00,
2013-06-14 17:50:00,59.8,57.5,29.83,NE,38,0.0,0.0,92,0.12,,,0.34,VWS V14.01,2013-06-14 21:50:00,
2013-06-14 17:51:00,59.8,57.5,29.83,NE,38,0.0,0.0,92,0.11,,,0.34,VWS V14.01,2013-06-14 21:51:00,
2013-06-14 17:52:00,59.8,57.5,29.83,NE,38,0.0,0.0,92,0.11,,,0.34,VWS V14.01,2013-06-14 21:52:00,
2013-06-14 17:53:00,59.8,57.5,29.83,NE,38,0.0,0.0,92,0.11,,,0.34,VWS V14.01,2013-06-14 21:53:00,
2013-06-14 17:54:00,59.8,57.5,29.83,NE,38,0.0,0.0,92,0.11,,,0.34,VWS V14.01,2013-06-14 21:54:00,
2013-06-14 17:55:00,59.9,57.6,29.83,NE,38,0.0,0.0,92,0.11,,,0.34,VWS V14.01,2013-06-14 21:55:00,
2013-06-14 17:56:00,59.9,57.6,29.83,NE,38,0.0,0.0,92,0.11,,,0.34,VWS V14.01,2013-06-14 21:56:00,
2013-06-14 17:57:00,59.9,57.6,29.83,NE,38,0.0,0.0,92,0.11,,,0.34,VWS V14.01,2013-06-14 21:57:00,
2013-06-14 17:58:00,59.9,57.6,29.83,NE,38,0.0,0.0,92,0.11,,,0.34,VWS V14.01,2013-06-14 21:58:00,
2013-06-14 17:59:00,60.0,57.7,29.83,NE,38,0.0,1.0,92,0.11,,,0.34,VWS V14.01,2013-06-14 21:59:00,
2013-06-14 18:00:00,60.0,57.7,29.84,NE,38,0.0,1.0,92,0.11,,,0.34,VWS V14.01,2013-06-14 22:00:00,
2013-06-14 18:01:00,60.0,57.7,29.84,NW,326,3.0,4.0,92,0.07,,,0.34,VWS V14.01,2013-06-14 22:01:00,
2013-06-14 18:02:00,60.1,57.8,29.84,NW,326,0.0,4.0,92,0.07,,,0.34,VWS V14.01,2013-06-14 22:02:00,
2013-06-14 18:03:00,60.1,57.8,29.84,NW,326,0.0,4.0,92,0.07,,,0.34,VWS V14.01,2013-06-14 22:03:00,
2013-06-14 18:04:00,60.1,57.8,29.84,NW,326,0.0,4.0,92,0.07,,,0.34,VWS V14.01,2013-06-14 22:04:00,
2013-06-14 18:05:00,60.1,57.8,29.84,NW,326,0.0,4.0,92,0.07,,,0.34,VWS V14.01,2013-06-14 22:05:00,
2013-06-14 18:06:00,60.1,57.8,29.84,NW,326,0.0,4.0,92,0.07,,,0.34,VWS V14.01,2013-06-14 22:06:00,
2013-06-14 18:07:00,60.1,57.8,29.84,NW,326,0.0,4.0,92,0.07,,,0.34,VWS V14.01,2013-06-14 22:07:00,
2013-06-14 18:08:00,60.1,57.8,29.84,NW,326,0.0,4.0,92,0.07,,,0.34,VWS V14.01,2013-06-14 22:08:00,
2013-06-14 18:09:00,60.1,57.8,29.84,NW,326,0.0,4.0,92,0.07,,,0.34,VWS V14.01,2013-06-14 22:09:00,
2013-06-14 18:10:00,60.1,57.8,29.84,NW,326,0.0,4.0,92,0.07,,,0.34,VWS V14.01,2013-06-14 22:10:00,
2013-06-14 18:11:00,60.1,57.8,29.84,NW,326,0.0,4.0,92,0.07,,,0.34,VWS V14.01,2013-06-14 22:11:00,
2013-06-14 18:12:00,60.1,57.8,29.84,NW,326,0.0,4.0,92,0.07,,,0.34,VWS V14.01,2013-06-14 22:12:00,
2013-06-14 18:13:00,60.2,58.2,29.84,NW,326,0.0,0.0,93,0.07,,,0.34,VWS V14.01,2013-06-14 22:13:00,
2013-06-14 18:14:00,60.2,58.2,29.84,NW,326,0.0,0.0,93,0.07,,,0.34,VWS V14.01,2013-06-14 22:14:00,
2013-06-14 18:15:00,60.2,58.2,29.84,NW,326,0.0,0.0,93,0.07,,,0.34,VWS V14.01,2013-06-14 22:15:00,
2013-06-14 18:16:00,60.2,58.2,29.84,NW,326,0.0,0.0,93,0.07,,,0.34,VWS V14.01,2013-06-14 22:16:00,
2013-06-14 18:17:00,60.2,58.2,29.84,NW,326,0.0,0.0,93,0.07,,,0.34,VWS V14.01,2013-06-14 22:17:00,
2013-06-14 18:18:00,60.2,58.2,29.84,NW,326,0.0,0.0,93,0.07,,,0.34,VWS V14.01,2013-06-14 22:18:00,
2013-06-14 18:19:00,60.2,58.2,29.84,NW,326,0.0,0.0,93,0.07,,,0.34,VWS V14.01,2013-06-14 22:19:00,
2013-06-14 18:20:00,60.2,58.2,29.84,NW,326,0.0,0.0,93,0.07,,,0.34,VWS V14.01,2013-06-14 22:20:00,
2013-06-14 18:21:00,60.2,58.2,29.84,NW,326,0.0,0.0,93,0.07,,,0.34,VWS V14.01,2013-06-14 22:21:00,
2013-06-14 18:22:00,60.2,58.2,29.84,NW,326,0.0,0.0,93,0.07,,,0.34,VWS V14.01,2013-06-14 22:22:00,
2013-06-14 18:23:00,60.2,58.2,29.84,NW,326,0.0,0.0,93,0.07,,,0.34,VWS V14.01,2013-06-14 22:23:00,
2013-06-14 18:24:00,60.2,58.2,29.84,NW,323,0.0,0.0,93,0.07,,,0.34,VWS V14.01,2013-06-14 22:24:00,
2013-06-14 18:25:00,60.2,58.2,29.84,NW,323,0.0,0.0,93,0.07,,,0.34,VWS V14.01,2013-06-14 22:25:00,
2013-06-14 18:26:00,60.3,58.3,29.84,NW,323,0.0,0.0,93,0.07,,,0.34,VWS V14.01,2013-06-14 22:26:00,
2013-06-14 18:27:00,60.3,58.3,29.84,NW,323,0.0,0.0,93,0.07,,,0.34,VWS V14.01,2013-06-14 22:27:00,
2013-06-14 18:28:00,60.3,58.3,29.84,NW,323,0.0,0.0,93,0.07,,,0.34,VWS V14.01,2013-06-14 22:28:00,
2013-06-14 18:29:00,60.3,58.3,29.84,NW,323,0.0,0.0,93,0.07,,,0.34,VWS V14.01,2013-06-14 22:29:00,
2013-06-14 18:30:00,60.3,58.3,29.84,NW,323,0.0,0.0,93,0.07,,,0.34,VWS V14.01,2013-06-14 22:30:00,
2013-06-14 18:31:00,60.3,58.3,29.84,NW,323,0.0,0.0,93,0.00,,,0.34,VWS V14.01,2013-06-14 22:31:00,
2013-06-14 18:32:00,60.3,58.3,29.84,NW,323,0.0,0.0,93,0.00,,,0.34,VWS V14.01,2013-06-14 22:32:00,
2013-06-14 18:33:00,60.3,58.3,29.84,NW,323,0.0,0.0,93,0.00,,,0.34,VWS V14.01,2013-06-14 22:33:00,
2013-06-14 18:34:00,60.3,58.3,29.84,NW,323,0.0,0.0,93,0.00,,,0.34,VWS V14.01,2013-06-14 22:34:00,
2013-06-14 18:35:00,60.3,58.3,29.84,NW,323,0.0,0.0,93,0.00,,,0.34,VWS V14.01,2013-06-14 22:35:00,
2013-06-14 18:36:00,60.3,58.3,29.84,NW,323,1.0,1.0,93,0.00,,,0.34,VWS V14.01,2013-06-14 22:36:00,
2013-06-14 18:37:00,60.3,58.3,29.84,NW,323,0.0,1.0,93,0.00,,,0.34,VWS V14.01,2013-06-14 22:37:00,
2013-06-14 18:38:00,60.3,58.3,29.84,NW,323,0.0,1.0,93,0.00,,,0.34,VWS V14.01,2013-06-14 22:38:00,
2013-06-14 18:39:00,60.3,58.3,29.84,NW,323,0.0,1.0,93,0.00,,,0.34,VWS V14.01,2013-06-14 22:39:00,
2013-06-14 18:40:00,60.3,58.3,29.84,NW,323,1.0,1.0,93,0.00,,,0.34,VWS V14.01,2013-06-14 22:40:00,
2013-06-14 18:41:00,60.3,58.3,29.84,NW,320,2.0,2.0,93,0.00,,,0.34,VWS V14.01,2013-06-14 22:41:00,
2013-06-14 18:42:00,60.3,58.3,29.84,NW,319,1.0,3.0,93,0.00,,,0.34,VWS V14.01,2013-06-14 22:42:00,
2013-06-14 18:43:00,60.3,58.3,29.84,NW,319,0.0,3.0,93,0.00,,,0.34,VWS V14.01,2013-06-14 22:43:00,
2013-06-14 18:44:00,60.3,58.3,29.84,NW,319,1.0,3.0,93,0.00,,,0.34,VWS V14.01,2013-06-14 22:44:00,
2013-06-14 18:45:00,60.3,58.3,29.84,NW,319,0.0,3.0,93,0.00,,,0.34,VWS V14.01,2013-06-14 22:45:00,
2013-06-14 18:46:00,60.3,58.3,29.84,NW,319,0.0,3.0,93,0.00,,,0.34,VWS V14.01,2013-06-14 22:46:00,
2013-06-14 18:47:00,60.3,58.3,29.84,NW,319,0.0,3.0,93,0.00,,,0.34,VWS V14.01,2013-06-14 22:47:00,
2013-06-14 18:48:00,60.3,58.3,29.84,NW,319,0.0,3.0,93,0.00,,,0.34,VWS V14.01,2013-06-14 22:48:00,
2013-06-14 18:49:00,60.3,58.3,29.84,NW,319,0.0,3.0,93,0.00,,,0.34,VWS V14.01,2013-06-14 22:49:00,
2013-06-14 18:50:00,60.3,58.3,29.84,NW,319,0.0,3.0,93,0.00,,,0.34,VWS V14.01,2013-06-14 22:50:00,
2013-06-14 18:51:00,60.3,58.3,29.84,NW,319,0.0,0.0,93,0.00,,,0.34,VWS V14.01,2013-06-14 22:51:00,
2013-06-14 18:52:00,60.3,58.3,29.84,NW,319,0.0,0.0,93,0.00,,,0.34,VWS V14.01,2013-06-14 22:52:00,
2013-06-14 18:53:00,60.3,58.3,29.84,NW,319,0.0,0.0,93,0.00,,,0.34,VWS V14.01,2013-06-14 22:53:00,
2013-06-14 18:54:00,60.3,58.3,29.84,NW,319,0.0,0.0,93,0.00,,,0.34,VWS V14.01,2013-06-14 22:54:00,
2013-06-14 18:55:00,60.3,58.3,29.84,NW,319,0.0,0.0,93,0.00,,,0.34,VWS V14.01,2013-06-14 22:55:00,
2013-06-14 18:56:00,60.3,58.3,29.84,NW,319,0.0,0.0,93,0.00,,,0.34,VWS V14.01,2013-06-14 22:56:00,
2013-06-14 18:57:00,60.3,58.3,29.84,NW,319,0.0,0.0,93,0.00,,,0.34,VWS V14.01,2013-06-14 22:57:00,
2013-06-14 18:58:00,60.3,58.3,29.84,NW,319,0.0,0.0,93,0.00,,,0.34,VWS V14.01,2013-06-14 22:58:00,
2013-06-14 18:59:00,60.3,58.3,29.84,NW,319,0.0,0.0,93,0.00,,,0.34,VWS V14.01,2013-06-14 22:59:00,
2013-06-14 19:00:00,60.3,58.3,29.86,NW,319,0.0,0.0,93,0.00,,,0.34,VWS V14.01,2013-06-14 23:00:00,
2013-06-14 19:01:00,60.3,58.6,29.86,NW,319,0.0,0.0,94,0.00,,,0.34,VWS V14.01,2013-06-14 23:01:00,
2013-06-14 19:02:00,60.3,58.6,29.86,NW,319,0.0,0.0,94,0.00,,,0.34,VWS V14.01,2013-06-14 23:02:00,
2013-06-14 19:03:00,60.3,58.6,29.86,NW,319,0.0,0.0,94,0.01,,,0.35,VWS V14.01,2013-06-14 23:03:00,
2013-06-14 19:04:00,60.3,58.6,29.86,NW,319,0.0,0.0,94,0.01,,,0.35,VWS V14.01,2013-06-14 23:04:00,
2013-06-14 19:05:00,60.3,58.6,29.86,NW,319,0.0,0.0,94,0.01,,,0.35,VWS V14.01,2013-06-14 23:05:00,
2013-06-14 19:06:00,60.3,58.6,29.86,NW,319,2.0,2.0,94,0.01,,,0.35,VWS V14.01,2013-06-14 23:06:00,
2013-06-14 19:07:00,60.3,58.6,29.86,NW,319,0.0,2.0,94,0.01,,,0.35,VWS V14.01,2013-06-14 23:07:00,
2013-06-14 19:08:00,60.3,58.6,29.86,NW,319,0.0,2.0,94,0.01,,,0.35,VWS V14.01,2013-06-14 23:08:00,
2013-06-14 19:09:00,60.3,58.6,29.86,NW,319,0.0,2.0,94,0.01,,,0.35,VWS V14.01,2013-06-14 23:09:00,
2013-06-14 19:10:00,60.3,58.3,29.86,NW,317,1.0,3.0,93,0.01,,,0.35,VWS V14.01,2013-06-14 23:10:00,
2013-06-14 19:11:00,60.3,58.6,29.86,NW,317,0.0,3.0,94,0.01,,,0.35,VWS V14.01,2013-06-14 23:11:00,
2013-06-14 19:12:00,60.3,58.6,29.86,NW,317,1.0,3.0,94,0.01,,,0.35,VWS V14.01,2013-06-14 23:12:00,
2013-06-14 19:13:00,60.3,58.6,29.86,NW,317,0.0,3.0,94,0.01,,,0.35,VWS V14.01,2013-06-14 23:13:00,
2013-06-14 19:14:00,60.3,58.6,29.86,NW,317,0.0,3.0,94,0.01,,,0.35,VWS V14.01,2013-06-14 23:14:00,
2013-06-14 19:15:00,60.3,58.6,29.85,NW,317,0.0,3.0,94,0.01,,,0.35,VWS V14.01,2013-06-14 23:15:00,
2013-06-14 19:16:00,60.3,58.6,29.85,NW,317,0.0,3.0,94,0.01,,,0.35,VWS V14.01,2013-06-14 23:16:00,
2013-06-14 19:17:00,60.3,58.6,29.85,NW,317,0.0,3.0,94,0.01,,,0.35,VWS V14.01,2013-06-14 23:17:00,
2013-06-14 19:18:00,60.3,58.6,29.85,NW,317,0.0,3.0,94,0.01,,,0.35,VWS V14.01,2013-06-14 23:18:00,
2013-06-14 19:19:00,60.3,58.6,29.85,NW,317,0.0,3.0,94,0.01,,,0.35,VWS V14.01,2013-06-14 23:19:00,
2013-06-14 19:20:00,60.3,58.6,29.85,NW,317,0.0,3.0,94,0.01,,,0.35,VWS V14.01,2013-06-14 23:20:00,
2013-06-14 19:21:00,60.2,58.5,29.85,NW,317,0.0,0.0,94,0.01,,,0.35,VWS V14.01,2013-06-14 23:21:00,
2013-06-14 19:22:00,60.2,58.5,29.85,NW,317,0.0,0.0,94,0.01,,,0.35,VWS V14.01,2013-06-14 23:22:00,
2013-06-14 19:23:00,60.2,58.5,29.85,NW,317,0.0,0.0,94,0.01,,,0.35,VWS V14.01,2013-06-14 23:23:00,
2013-06-14 19:24:00,60.2,58.5,29.85,NW,317,0.0,0.0,94,0.01,,,0.35,VWS V14.01,2013-06-14 23:24:00,
2013-06-14 19:25:00,60.2,58.5,29.85,NW,317,0.0,0.0,94,0.01,,,0.35,VWS V14.01,2013-06-14 23:25:00,
2013-06-14 19:26:00,60.3,58.6,29.85,NW,317,0.0,0.0,94,0.01,,,0.35,VWS V14.01,2013-06-14 23:26:00,
2013-06-14 19:27:00,60.3,58.6,29.85,NW,317,1.0,2.0,94,0.01,,,0.35,VWS V14.01,2013-06-14 23:27:00,
2013-06-14 19:28:00,60.2,58.5,29.85,NW,317,0.0,2.0,94,0.01,,,0.35,VWS V14.01,2013-06-14 23:28:00,
2013-06-14 19:29:00,60.3,58.6,29.85,NW,317,0.0,2.0,94,0.01,,,0.35,VWS V14.01,2013-06-14 23:29:00,
2013-06-14 19:30:00,60.3,58.6,29.85,NW,317,0.0,2.0,94,0.01,,,0.35,VWS V14.01,2013-06-14 23:30:00,
2013-06-14 19:31:00,60.3,58.6,29.85,NW,317,0.0,0.0,94,0.01,,,0.35,VWS V14.01,2013-06-14 23:31:00,
2013-06-14 19:32:00,60.3,58.6,29.85,NW,317,0.0,0.0,94,0.01,,,0.35,VWS V14.01,2013-06-14 23:32:00,
2013-06-14 19:33:00,60.3,58.6,29.85,NW,317,0.0,0.0,94,0.01,,,0.35,VWS V14.01,2013-06-14 23:33:00,
2013-06-14 19:34:00,60.2,58.5,29.85,NW,317,1.0,1.0,94,0.01,,,0.35,VWS V14.01,2013-06-14 23:34:00,
2013-06-14 19:35:00,60.2,58.5,29.85,NW,317,0.0,1.0,94,0.01,,,0.35,VWS V14.01,2013-06-14 23:35:00,
2013-06-14 19:36:00,60.2,58.5,29.85,NW,317,0.0,1.0,94,0.01,,,0.35,VWS V14.01,2013-06-14 23:36:00,
2013-06-14 19:37:00,60.2,58.5,29.85,NW,317,0.0,1.0,94,0.01,,,0.35,VWS V14.01,2013-06-14 23:37:00,
2013-06-14 19:38:00,60.2,58.5,29.85,NW,317,0.0,1.0,94,0.01,,,0.35,VWS V14.01,2013-06-14 23:38:00,
2013-06-14 19:39:00,60.2,58.5,29.85,NW,317,0.0,1.0,94,0.01,,,0.35,VWS V14.01,2013-06-14 23:39:00,
2013-06-14 19:40:00,60.2,58.5,29.85,NW,317,0.0,1.0,94,0.01,,,0.35,VWS V14.01,2013-06-14 23:40:00,
2013-06-14 19:41:00,60.2,58.5,29.85,NW,317,0.0,0.0,94,0.01,,,0.35,VWS V14.01,2013-06-14 23:41:00,
2013-06-14 19:42:00,60.2,58.5,29.85,NW,317,0.0,0.0,94,0.01,,,0.35,VWS V14.01,2013-06-14 23:42:00,
2013-06-14 19:43:00,60.2,58.5,29.85,NW,317,0.0,0.0,94,0.01,,,0.35,VWS V14.01,2013-06-14 23:43:00,
2013-06-14 19:44:00,60.2,58.5,29.85,NW,317,0.0,0.0,94,0.01,,,0.35,VWS V14.01,2013-06-14 23:44:00,
2013-06-14 19:45:00,60.2,58.5,29.84,NW,317,0.0,0.0,94,0.01,,,0.35,VWS V14.01,2013-06-14 23:45:00,
2013-06-14 19:46:00,60.2,58.5,29.84,NW,317,0.0,0.0,94,0.01,,,0.35,VWS V14.01,2013-06-14 23:46:00,
2013-06-14 19:47:00,60.2,58.5,29.84,NW,317,0.0,0.0,94,0.01,,,0.35,VWS V14.01,2013-06-14 23:47:00,
2013-06-14 19:48:00,60.2,58.5,29.84,NW,317,0.0,0.0,94,0.01,,,0.35,VWS V14.01,2013-06-14 23:48:00,
2013-06-14 19:49:00,60.2,58.5,29.84,NW,317,0.0,0.0,94,0.01,,,0.35,VWS V14.01,2013-06-14 23:49:00,
2013-06-14 19:50:00,60.2,58.5,29.84,NW,317,0.0,0.0,94,0.01,,,0.35,VWS V14.01,2013-06-14 23:50:00,
2013-06-14 19:51:00,60.2,58.5,29.84,NW,317,0.0,0.0,94,0.01,,,0.35,VWS V14.01,2013-06-14 23:51:00,
2013-06-14 19:52:00,60.1,58.4,29.84,NW,317,0.0,0.0,94,0.01,,,0.35,VWS V14.01,2013-06-14 23:52:00,
2013-06-14 19:53:00,60.1,58.4,29.84,NW,317,0.0,0.0,94,0.01,,,0.35,VWS V14.01,2013-06-14 23:53:00,
2013-06-14 19:54:00,60.1,58.4,29.84,NW,317,0.0,0.0,94,0.01,,,0.35,VWS V14.01,2013-06-14 23:54:00,
2013-06-14 19:55:00,60.1,58.4,29.84,NW,317,0.0,0.0,94,0.01,,,0.35,VWS V14.01,2013-06-14 23:55:00,
2013-06-14 19:56:00,60.1,58.4,29.84,NW,317,0.0,0.0,94,0.01,,,0.35,VWS V14.01,2013-06-14 23:56:00,
2013-06-14 19:57:00,60.1,58.4,29.84,NW,317,0.0,0.0,94,0.01,,,0.35,VWS V14.01,2013-06-14 23:57:00,
2013-06-14 19:58:00,60.1,58.4,29.84,NW,317,0.0,0.0,94,0.01,,,0.35,VWS V14.01,2013-06-14 23:58:00,
2013-06-14 19:59:00,60.1,58.4,29.84,NW,317,0.0,0.0,94,0.01,,,0.35,VWS V14.01,2013-06-14 23:59:00,
2013-06-14 20:00:00,60.1,58.4,29.84,NW,317,0.0,0.0,94,0.01,,,0.35,VWS V14.01,2013-06-15 00:00:00,
2013-06-14 20:01:00,59.9,58.2,29.85,NW,317,0.0,0.0,94,0.00,,,0.35,VWS V14.01,2013-06-15 00:01:00,
2013-06-14 20:02:00,59.9,58.2,29.85,NW,317,0.0,0.0,94,0.01,,,0.35,VWS V14.01,2013-06-15 00:02:00,
2013-06-14 20:03:00,59.9,58.2,29.85,NW,317,0.0,0.0,94,0.01,,,0.35,VWS V14.01,2013-06-15 00:03:00,
2013-06-14 20:04:00,59.9,58.2,29.85,NW,317,0.0,0.0,94,0.01,,,0.35,VWS V14.01,2013-06-15 00:04:00,
2013-06-14 20:05:00,59.9,58.2,29.85,NW,317,0.0,0.0,94,0.01,,,0.35,VWS V14.01,2013-06-15 00:05:00,
2013-06-14 20:06:00,59.9,58.2,29.85,NW,317,0.0,0.0,94,0.01,,,0.35,VWS V14.01,2013-06-15 00:06:00,
2013-06-14 20:07:00,59.9,58.2,29.85,NW,317,0.0,0.0,94,0.01,,,0.35,VWS V14.01,2013-06-15 00:07:00,
2013-06-14 20:08:00,59.9,58.2,29.85,NW,317,0.0,0.0,94,0.01,,,0.35,VWS V14.01,2013-06-15 00:08:00,
2013-06-14 20:09:00,59.8,58.1,29.85,NW,317,0.0,0.0,94,0.01,,,0.35,VWS V14.01,2013-06-15 00:09:00,
2013-06-14 20:10:00,59.8,58.1,29.85,NW,317,0.0,0.0,94,0.01,,,0.35,VWS V14.01,2013-06-15 00:10:00,
2013-06-14 20:11:00,59.8,58.1,29.85,NW,317,0.0,0.0,94,0.01,,,0.35,VWS V14.01,2013-06-15 00:11:00,
2013-06-14 20:12:00,59.7,58.0,29.85,NW,317,0.0,0.0,94,0.01,,,0.35,VWS V14.01,2013-06-15 00:12:00,
2013-06-14 20:13:00,59.7,58.0,29.85,NW,317,0.0,0.0,94,0.01,,,0.35,VWS V14.01,2013-06-15 00:13:00,
2013-06-14 20:14:00,59.7,58.0,29.85,NW,317,0.0,0.0,94,0.01,,,0.35,VWS V14.01,2013-06-15 00:14:00,
2013-06-14 20:15:00,59.7,58.0,29.85,NW,317,0.0,0.0,94,0.01,,,0.35,VWS V14.01,2013-06-15 00:15:00,
2013-06-14 20:16:00,59.6,57.9,29.85,NW,317,0.0,0.0,94,0.01,,,0.35,VWS V14.01,2013-06-15 00:16:00,
2013-06-14 20:17:00,59.6,57.9,29.85,NW,317,0.0,0.0,94,0.01,,,0.35,VWS V14.01,2013-06-15 00:17:00,
2013-06-14 20:18:00,59.6,57.9,29.85,NW,317,0.0,0.0,94,0.01,,,0.35,VWS V14.01,2013-06-15 00:18:00,
2013-06-14 20:19:00,59.6,57.9,29.85,NW,317,0.0,0.0,94,0.01,,,0.35,VWS V14.01,2013-06-15 00:19:00,
2013-06-14 20:20:00,59.6,57.9,29.85,NW,317,0.0,0.0,94,0.01,,,0.35,VWS V14.01,2013-06-15 00:20:00,
2013-06-14 20:21:00,59.6,57.9,29.85,NW,317,0.0,0.0,94,0.01,,,0.35,VWS V14.01,2013-06-15 00:21:00,
2013-06-14 20:22:00,59.6,57.9,29.85,NW,317,0.0,0.0,94,0.01,,,0.35,VWS V14.01,2013-06-15 00:22:00,
2013-06-14 20:23:00,59.6,57.9,29.85,NW,317,0.0,0.0,94,0.01,,,0.35,VWS V14.01,2013-06-15 00:23:00,
2013-06-14 20:24:00,59.6,57.9,29.85,NW,317,0.0,0.0,94,0.01,,,0.35,VWS V14.01,2013-06-15 00:24:00,
2013-06-14 20:30:00,59.3,57.6,29.86,NW,315,0.0,0.0,94,0.00,,,0.35,VWS V14.01,2013-06-15 00:30:00,
2013-06-14 20:40:00,59.1,57.4,29.86,NW,315,0.0,0.0,94,0.00,,,0.35,VWS V14.01,2013-06-15 00:40:00,
2013-06-14 20:50:00,58.9,57.2,29.87,NW,315,0.0,1.0,94,0.00,,,0.35,VWS V14.01,2013-06-15 00:50:00,
2013-06-14 21:00:00,58.7,57.0,29.87,NW,315,0.0,0.0,94,0.00,,,0.35,VWS V14.01,2013-06-15 01:00:00,
2013-06-14 21:10:00,58.5,56.8,29.87,NW,315,0.0,1.0,94,0.00,,,0.35,VWS V14.01,2013-06-15 01:10:00,
2013-06-14 21:20:00,58.3,56.6,29.88,NW,315,0.0,1.0,94,0.00,,,0.35,VWS V14.01,2013-06-15 01:20:00,
2013-06-14 22:13:00,57.8,56.1,29.90,NW,317,0.0,0.0,94,0.00,,,0.00,VWS V14.01,2013-06-15 02:13:00,
2013-06-14 22:18:00,57.8,56.1,29.90,NW,317,0.0,0.0,94,0.00,,,0.00,VWS V14.01,2013-06-15 02:18:00,
2013-06-14 22:23:00,57.7,56.0,29.90,NW,317,0.0,0.0,94,0.00,,,0.00,VWS V14.01,2013-06-15 02:23:00,
2013-06-14 22:28:00,57.6,55.9,29.90,NW,317,0.0,0.0,94,0.00,,,0.00,VWS V14.01,2013-06-15 02:28:00,
2013-06-14 22:34:00,57.5,55.8,29.91,NW,317,0.0,0.0,94,0.00,,,0.00,VWS V14.01,2013-06-15 02:34:00,
2013-06-14 22:39:00,57.4,55.7,29.91,NW,317,0.0,0.0,94,0.00,,,0.00,VWS V14.01,2013-06-15 02:39:00,
2013-06-14 22:44:00,57.3,55.6,29.91,NW,317,0.0,0.0,94,0.00,,,0.00,VWS V14.01,2013-06-15 02:44:00,
2013-06-14 22:49:00,57.3,55.6,29.91,NW,317,0.0,0.0,94,0.00,,,0.00,VWS V14.01,2013-06-15 02:49:00,
2013-06-14 22:54:00,57.2,55.5,29.91,NW,317,0.0,0.0,94,0.00,,,0.00,VWS V14.01,2013-06-15 02:54:00,
2013-06-14 22:59:00,57.1,55.4,29.91,NW,317,0.0,0.0,94,0.00,,,0.00,VWS V14.01,2013-06-15 02:59:00,
2013-06-14 23:04:00,57.0,55.3,29.90,NW,317,0.0,0.0,94,0.00,,,0.00,VWS V14.01,2013-06-15 03:04:00,
2013-06-14 23:09:00,56.9,55.2,29.90,NW,317,0.0,0.0,94,0.00,,,0.00,VWS V14.01,2013-06-15 03:09:00,
2013-06-14 23:14:00,56.8,55.1,29.90,NW,317,0.0,0.0,94,0.00,,,0.00,VWS V14.01,2013-06-15 03:14:00,
2013-06-14 23:19:00,56.7,55.0,29.90,NW,317,0.0,0.0,94,0.00,,,0.00,VWS V14.01,2013-06-15 03:19:00,
2013-06-14 23:24:00,56.6,54.9,29.90,NW,317,0.0,0.0,94,0.00,,,0.00,VWS V14.01,2013-06-15 03:24:00,
2013-06-14 23:29:00,56.6,54.9,29.90,NW,317,0.0,0.0,94,0.00,,,0.00,VWS V14.01,2013-06-15 03:29:00,
2013-06-14 23:33:00,56.5,54.8,29.91,NW,317,0.0,0.0,94,0.00,,,0.00,VWS V14.01,2013-06-15 03:33:00,
2013-06-14 23:38:00,56.4,54.7,29.91,NW,317,0.0,0.0,94,0.00,,,0.00,VWS V14.01,2013-06-15 03:38:00,
2013-06-14 23:43:00,56.4,54.7,29.91,NW,317,0.0,0.0,94,0.00,,,0.00,VWS V14.01,2013-06-15 03:43:00,
2013-06-14 23:48:00,56.3,54.6,29.91,NW,317,0.0,0.0,94,0.00,,,0.00,VWS V14.01,2013-06-15 03:48:00,
2013-06-14 23:53:00,56.2,54.5,29.91,NW,317,0.0,0.0,94,0.00,,,0.00,VWS V14.01,2013-06-15 03:53:00,
2013-06-14 23:58:00,56.1,54.4,29.91,NW,317,0.0,0.0,94,0.00,,,0.00,VWS V14.01,2013-06-15 03:58:00,